| time (UTC) | temp F | wind direction | speed MPH | gust MPH | rain 1hr in | rain 24hr in | rain mn in | humidity % | barometer mb |
| 20260901140929 | 71 | 190 | 0.0 | 0.0 | 0.00 | 0.00 | 0.00 | 92 | 1015.2 |
| 20260901140838 | 71 | 203 | 0.0 | 0.0 | 0.00 | 0.00 | 0.00 | 92 | 1015.2 |
| 20260901140731 | 71 | 203 | 0.0 | 0.0 | 0.00 | 0.00 | 0.00 | 92 | 1015.2 |
| 20260901140528 | 70 | 203 | 0.0 | 0.0 | 0.00 | 0.00 | 0.00 | 93 | 1015.2 |
| 20260901140329 | 70 | 216 | 0.0 | 0.0 | 0.00 | 0.00 | 0.00 | 94 | 1015.2 |
| 20260901140229 | 70 | 216 | 0.0 | 0.0 | 0.00 | 0.00 | 0.00 | 94 | 1015.2 |
| 20260901140130 | 70 | 214 | 0.0 | 0.0 | 0.00 | 0.00 | 0.00 | 94 | 1015.2 |
| 20260901135930 | 70 | 214 | 0.0 | 0.0 | 0.00 | 0.00 | 0.00 | 95 | 1015.2 |
| 20260901135836 | 69 | 216 | 0.0 | 0.0 | 0.00 | 0.00 | 0.00 | 95 | 1015.3 |
| 20260901135731 | 69 | 216 | 0.0 | 0.0 | 0.00 | 0.00 | 0.00 | 95 | 1015.3 |
| 20260901135556 | 69 | 216 | 0.0 | 0.0 | 0.00 | 0.00 | 0.00 | 96 | 1015.3 |
| 20260901135529 | 69 | 214 | 0.0 | 0.0 | 0.00 | 0.00 | 0.00 | 95 | 1015.3 |
| 20260901135516 | 69 | 216 | 0.0 | 0.0 | 0.00 | 0.00 | 0.00 | 96 | 1015.3 |
| 20260901135130 | 68 | 216 | 0.0 | 0.0 | 0.00 | 0.00 | 0.00 | 97 | 1015.2 |
| 20260901134930 | 68 | 216 | 0.0 | 0.0 | 0.00 | 0.00 | 0.00 | 97 | 1015.4 |
| 20260901134731 | 68 | 214 | 0.0 | 0.0 | 0.00 | 0.00 | 0.00 | 97 | 1015.3 |
| 20260901134601 | 68 | 216 | 0.0 | 0.0 | 0.00 | 0.00 | 0.00 | 97 | 1015.3 |
| 20260901134529 | 68 | 214 | 0.0 | 0.0 | 0.00 | 0.00 | 0.00 | 97 | 1015.3 |
| 20260901134520 | 68 | 214 | 0.0 | 0.0 | 0.00 | 0.00 | 0.00 | 97 | 1015.4 |
| 20260901134130 | 68 | 216 | 0.0 | 0.0 | 0.00 | 0.00 | 0.00 | 97 | 1015.3 |
| 20260901134030 | 68 | 214 | 0.0 | 0.0 | 0.00 | 0.00 | 0.00 | 97 | 1015.3 |
| 20260901133730 | 67 | 216 | 0.0 | 0.0 | 0.00 | 0.00 | 0.00 | 97 | 1015.3 |
| 20260901133534 | 67 | 216 | 0.0 | 0.0 | 0.00 | 0.00 | 0.00 | 97 | 1015.4 |
| 20260901133528 | 67 | 214 | 0.0 | 0.0 | 0.00 | 0.00 | 0.00 | 97 | 1015.4 |
| 20260901133501 | 67 | 216 | 0.0 | 0.0 | 0.00 | 0.00 | 0.00 | 97 | 1015.4 |
| 20260901133129 | 67 | 216 | 0.0 | 0.0 | 0.00 | 0.00 | 0.00 | 97 | 1015.4 |
| 20260901132929 | 67 | 216 | 0.0 | 1.0 | 0.00 | 0.00 | 0.00 | 97 | 1015.4 |
| 20260901132731 | 67 | 216 | 0.0 | 1.0 | 0.00 | 0.00 | 0.00 | 97 | 1015.4 |
| 20260901132529 | 67 | 214 | 0.0 | 1.0 | 0.00 | 0.00 | 0.00 | 98 | 1015.4 |
| 20260901132428 | 67 | 216 | 0.0 | 1.0 | 0.00 | 0.00 | 0.00 | 98 | 1015.4 |
| 20260901132228 | 66 | 216 | 0.0 | 1.0 | 0.00 | 0.00 | 0.00 | 97 | 1015.3 |
| 20260901132128 | 66 | 216 | 0.0 | 1.0 | 0.00 | 0.00 | 0.00 | 97 | 1015.4 |
| 20260901132030 | 66 | 214 | 0.0 | 0.0 | 0.00 | 0.00 | 0.00 | 97 | 1015.3 |
| 20260901131731 | 66 | 214 | 0.0 | 0.0 | 0.00 | 0.00 | 0.00 | 97 | 1015.3 |
| 20260901131529 | 66 | 220 | 0.0 | 0.0 | 0.00 | 0.00 | 0.00 | 98 | 1015.2 |
| 20260901131331 | 66 | 220 | 0.0 | 0.0 | 0.00 | 0.00 | 0.00 | 97 | 1015.2 |
| 20260901131230 | 66 | 220 | 0.0 | 0.0 | 0.00 | 0.00 | 0.00 | 97 | 1015.2 |
| 20260901131129 | 66 | 220 | 0.0 | 0.0 | 0.00 | 0.00 | 0.00 | 97 | 1015.2 |
| 20260901131036 | 65 | 220 | 0.0 | 0.0 | 0.00 | 0.00 | 0.00 | 97 | 1015.2 |
| 20260901130730 | 65 | 219 | 0.0 | 0.0 | 0.00 | 0.00 | 0.00 | 97 | 1015.2 |
| 20260901130628 | 65 | 220 | 0.0 | 0.0 | 0.00 | 0.00 | 0.00 | 97 | 1015.1 |
| 20260901130330 | 65 | 219 | 0.0 | 0.0 | 0.00 | 0.00 | 0.00 | 98 | 1015.1 |
| 20260901130243 | 65 | 219 | 0.0 | 0.0 | 0.00 | 0.00 | 0.00 | 97 | 1015.1 |
| 20260901130129 | 65 | 220 | 0.0 | 0.0 | 0.00 | 0.00 | 0.00 | 97 | 1015.1 |
| 20260901125931 | 65 | 219 | 0.0 | 0.0 | 0.00 | 0.00 | 0.00 | 97 | 1015.0 |
| 20260901125733 | 65 | 219 | 0.0 | 0.0 | 0.00 | 0.00 | 0.00 | 98 | 1015.0 |
| 20260901125612 | 0 | 0.0 | 0.0 | 0.00 | 0.00 | 0.00 | |||
| 20260901125507 | 0 | 0.0 | 0.0 | 0.00 | 0.00 | 0.00 | |||
| 20260901125309 | 0 | 0.0 | 0.0 | 0.00 | 0.00 | 0.00 | |||
| 20260901125035 | 0 | 0.0 | 0.0 | 0.00 | 0.00 | 0.00 | |||
| 20260901124934 | 0 | 0.0 | 0.0 | 0.00 | 0.00 | 0.00 | |||
| 20260901124848 | 0 | 0.0 | 0.0 | 0.00 | 0.00 | 0.00 | |||
| 20260901124638 | 0 | 0.0 | 0.0 | 0.00 | 0.00 | 0.00 | |||
| 20260901124548 | 0 | 0.0 | 0.0 | 0.00 | 0.00 | 0.00 | 1014.8 | ||
| 20260901124444 | 0 | 0.0 | 0.0 | 0.00 | 0.00 | 0.00 | 1014.8 | ||
| 20260901124207 | 0 | 0.0 | 0.0 | 0.00 | 0.00 | 0.00 | 1014.8 | ||
| 20260901124110 | 0 | 0.0 | 0.0 | 0.00 | 0.00 | 0.00 | 1014.8 | ||
| 20260901123905 | 63 | 219 | 0.0 | 0.0 | 0.00 | 0.00 | 0.00 | 97 | 1014.8 |
| 20260901123808 | 63 | 219 | 0.0 | 0.0 | 0.00 | 0.00 | 0.00 | 97 | 1014.8 |
| 20260901123617 | 63 | 219 | 0.0 | 0.0 | 0.00 | 0.00 | 0.00 | 97 | 1014.7 |
| 20260901123610 | 63 | 219 | 0.0 | 0.0 | 0.00 | 0.00 | 0.00 | 97 | 1014.8 |
| 20260901123550 | 63 | 219 | 0.0 | 0.0 | 0.00 | 0.00 | 0.00 | 97 | 1014.8 |
| 20260901123158 | 63 | 220 | 0.0 | 0.0 | 0.00 | 0.00 | 0.00 | 97 | 1014.7 |
| 20260901123135 | 63 | 219 | 0.0 | 0.0 | 0.00 | 0.00 | 0.00 | 97 | 1014.7 |
| 20260901123115 | 63 | 220 | 0.0 | 0.0 | 0.00 | 0.00 | 0.00 | 97 | 1014.7 |
| 20260901122737 | 63 | 220 | 0.0 | 0.0 | 0.00 | 0.00 | 0.00 | 97 | 1014.7 |
| 20260901122634 | 62 | 220 | 0.0 | 0.0 | 0.00 | 0.00 | 0.00 | 97 | 1014.7 |
| 20260901122332 | 62 | 220 | 0.0 | 0.0 | 0.00 | 0.00 | 0.00 | 97 | 1014.7 |
| 20260901122135 | 62 | 220 | 0.0 | 0.0 | 0.00 | 0.00 | 0.00 | 97 | 1014.7 |
| 20260901122124 | 62 | 219 | 0.0 | 0.0 | 0.00 | 0.00 | 0.00 | 97 | 1014.7 |
| 20260901122101 | 62 | 220 | 0.0 | 0.0 | 0.00 | 0.00 | 0.00 | 97 | 1014.7 |
| 20260901121736 | 62 | 220 | 0.0 | 0.0 | 0.00 | 0.00 | 0.00 | 97 | 1014.7 |
| 20260901121635 | 62 | 220 | 0.0 | 0.0 | 0.00 | 0.00 | 0.00 | 97 | 1014.6 |
| 20260901121330 | 62 | 220 | 0.0 | 0.0 | 0.00 | 0.00 | 0.00 | 97 | 1014.6 |
| 20260901121236 | 62 | 219 | 0.0 | 0.0 | 0.00 | 0.00 | 0.00 | 97 | 1014.5 |
| 20260901121056 | 62 | 220 | 0.0 | 0.0 | 0.00 | 0.00 | 0.00 | 97 | 1014.5 |
| 20260901121036 | 62 | 220 | 0.0 | 0.0 | 0.00 | 0.00 | 0.00 | 97 | 1014.5 |
| 20260901120736 | 62 | 219 | 0.0 | 0.0 | 0.00 | 0.00 | 0.00 | 97 | 1014.5 |
| 20260901120634 | 62 | 220 | 0.0 | 0.0 | 0.00 | 0.00 | 0.00 | 97 | 1014.6 |
| 20260901120334 | 62 | 220 | 0.0 | 0.0 | 0.00 | 0.00 | 0.00 | 97 | 1014.6 |
| 20260901120301 | 62 | 219 | 0.0 | 0.0 | 0.00 | 0.00 | 0.00 | 97 | 1014.5 |
| 20260901120139 | 62 | 219 | 0.0 | 0.0 | 0.00 | 0.00 | 0.00 | 97 | 1014.4 |
| 20260901120135 | 62 | 221 | 0.0 | 0.0 | 0.00 | 0.00 | 0.00 | 97 | 1014.6 |
| 20260901120052 | 62 | 219 | 0.0 | 0.0 | 0.00 | 0.00 | 0.00 | 97 | 1014.5 |
| 20260901115737 | 62 | 220 | 0.0 | 0.0 | 0.00 | 0.00 | 0.00 | 97 | 1014.5 |
| 20260901115534 | 62 | 219 | 0.0 | 0.0 | 0.00 | 0.00 | 0.00 | 97 | 1014.4 |
| 20260901115336 | 62 | 219 | 0.0 | 0.0 | 0.00 | 0.00 | 0.00 | 97 | 1014.5 |
| 20260901115306 | 62 | 220 | 0.0 | 0.0 | 0.00 | 0.00 | 0.00 | 97 | 1014.4 |
| 20260901115235 | 62 | 220 | 0.0 | 0.0 | 0.00 | 0.00 | 0.00 | 97 | 1014.4 |
| 20260901114939 | 62 | 219 | 0.0 | 0.0 | 0.00 | 0.00 | 0.00 | 97 | 1014.4 |
| 20260901114800 | 62 | 219 | 0.0 | 0.0 | 0.00 | 0.00 | 0.00 | 97 | 1014.3 |
| 20260901114731 | 62 | 220 | 0.0 | 0.0 | 0.00 | 0.00 | 0.00 | 97 | 1014.3 |
| 20260901114644 | 62 | 220 | 0.0 | 0.0 | 0.00 | 0.00 | 0.00 | 97 | 1014.3 |
| 20260901114521 | 62 | 220 | 0.0 | 0.0 | 0.00 | 0.00 | 0.00 | 97 | 1014.3 |
| 20260901114106 | 62 | 220 | 0.0 | 0.0 | 0.00 | 0.00 | 0.00 | 97 | 1014.2 |
| 20260901113906 | 62 | 217 | 0.0 | 0.0 | 0.00 | 0.00 | 0.00 | 97 | 1014.3 |
| 20260901113807 | 62 | 220 | 0.0 | 0.0 | 0.00 | 0.00 | 0.00 | 97 | 1014.2 |
| 20260901113754 | 62 | 219 | 0.0 | 0.0 | 0.00 | 0.00 | 0.00 | 97 | 1014.2 |
| 20260901113540 | 62 | 219 | 0.0 | 0.0 | 0.00 | 0.00 | 0.00 | 97 | 1014.1 |
| 20260901113528 | 62 | 220 | 0.0 | 0.0 | 0.00 | 0.00 | 0.00 | 97 | 1014.1 |
| 20260901113457 | 62 | 220 | 0.0 | 0.0 | 0.00 | 0.00 | 0.00 | 97 | 1014.1 |
| 20260901113103 | 62 | 219 | 0.0 | 0.0 | 0.00 | 0.00 | 0.00 | 97 | 1014.1 |
| 20260901112902 | 62 | 220 | 0.0 | 0.0 | 0.00 | 0.00 | 0.00 | 97 | 1014.2 |
| 20260901112738 | 62 | 220 | 0.0 | 0.0 | 0.00 | 0.00 | 0.00 | 97 | 1014.1 |
| 20260901112702 | 62 | 219 | 0.0 | 0.0 | 0.00 | 0.00 | 0.00 | 97 | 1014.1 |
| 20260901112542 | 62 | 220 | 0.0 | 0.0 | 0.00 | 0.00 | 0.00 | 97 | 1014.0 |
| 20260901112529 | 62 | 220 | 0.0 | 0.0 | 0.00 | 0.00 | 0.00 | 96 | 1014.0 |
| 20260901112458 | 62 | 219 | 0.0 | 0.0 | 0.00 | 0.00 | 0.00 | 97 | 1014.0 |
| 20260901112205 | 62 | 220 | 0.0 | 0.0 | 0.00 | 0.00 | 0.00 | 97 | 1014.0 |
| 20260901111901 | 62 | 221 | 0.0 | 0.0 | 0.00 | 0.00 | 0.00 | 96 | 1013.9 |
| 20260901111803 | 62 | 219 | 0.0 | 0.0 | 0.00 | 0.00 | 0.00 | 96 | 1013.8 |
| 20260901111736 | 62 | 220 | 0.0 | 0.0 | 0.00 | 0.00 | 0.00 | 96 | 1013.9 |
| 20260901111444 | 62 | 220 | 0.0 | 0.0 | 0.00 | 0.00 | 0.00 | 96 | 1013.8 |
| 20260901111237 | 62 | 220 | 0.0 | 0.0 | 0.00 | 0.00 | 0.00 | 96 | 1013.8 |
| 20260901111040 | 62 | 219 | 0.0 | 0.0 | 0.00 | 0.00 | 0.00 | 97 | 1013.8 |
| 20260901110838 | 62 | 220 | 0.0 | 0.0 | 0.00 | 0.00 | 0.00 | 96 | 1013.7 |
| 20260901110747 | 62 | 220 | 0.0 | 0.0 | 0.00 | 0.00 | 0.00 | 96 | 1013.8 |
| 20260901110735 | 62 | 219 | 0.0 | 0.0 | 0.00 | 0.00 | 0.00 | 96 | 1013.7 |
| 20260901110440 | 62 | 220 | 0.0 | 0.0 | 0.00 | 0.00 | 0.00 | 97 | 1013.8 |
| 20260901110339 | 62 | 220 | 0.0 | 0.0 | 0.00 | 0.00 | 0.00 | 97 | 1013.8 |
| 20260901110235 | 62 | 219 | 0.0 | 0.0 | 0.00 | 0.00 | 0.00 | 97 | 1013.8 |
| 20260901110036 | 62 | 220 | 0.0 | 0.0 | 0.00 | 0.00 | 0.00 | 96 | 1013.7 |
| 20260901105837 | 62 | 220 | 0.0 | 0.0 | 0.00 | 0.00 | 0.00 | 96 | 1013.7 |
| 20260901105733 | 62 | 219 | 0.0 | 0.0 | 0.00 | 0.00 | 0.00 | 97 | 1013.8 |
| 20260901105638 | 62 | 219 | 0.0 | 0.0 | 0.00 | 0.00 | 0.00 | 97 | 1013.8 |
| 20260901105435 | 62 | 220 | 0.0 | 0.0 | 0.00 | 0.00 | 0.00 | 96 | 1013.8 |
| 20260901105343 | 62 | 219 | 0.0 | 0.0 | 0.00 | 0.00 | 0.00 | 96 | 1013.8 |
| 20260901105235 | 62 | 219 | 0.0 | 0.0 | 0.00 | 0.00 | 0.00 | 96 | 1013.8 |
| 20260901105036 | 62 | 219 | 0.0 | 0.0 | 0.00 | 0.00 | 0.00 | 96 | 1013.8 |
| 20260901104835 | 62 | 219 | 0.0 | 0.0 | 0.00 | 0.00 | 0.00 | 97 | 1013.8 |
| 20260901104735 | 62 | 219 | 0.0 | 0.0 | 0.00 | 0.00 | 0.00 | 97 | 1013.8 |
| 20260901104639 | 62 | 220 | 0.0 | 0.0 | 0.00 | 0.00 | 0.00 | 97 | 1013.7 |
| 20260901104635 | 62 | 219 | 0.0 | 0.0 | 0.00 | 0.00 | 0.00 | 97 | 1013.8 |
| 20260901104236 | 62 | 220 | 0.0 | 0.0 | 0.00 | 0.00 | 0.00 | 96 | 1013.8 |
| 20260901104214 | 62 | 220 | 0.0 | 0.0 | 0.00 | 0.00 | 0.00 | 96 | 1013.7 |
| 20260901104035 | 62 | 220 | 0.0 | 0.0 | 0.00 | 0.00 | 0.00 | 96 | 1013.7 |
| 20260901103838 | 62 | 220 | 0.0 | 0.0 | 0.00 | 0.00 | 0.00 | 96 | 1013.8 |
| 20260901103704 | 62 | 220 | 0.0 | 0.0 | 0.00 | 0.00 | 0.00 | 96 | 1013.9 |
| 20260901103635 | 62 | 219 | 0.0 | 0.0 | 0.00 | 0.00 | 0.00 | 96 | 1013.9 |
| 20260901103435 | 62 | 220 | 0.0 | 0.0 | 0.00 | 0.00 | 0.00 | 96 | 1013.7 |
| 20260901103240 | 62 | 220 | 0.0 | 0.0 | 0.00 | 0.00 | 0.00 | 97 | 1013.7 |
| 20260901103235 | 62 | 220 | 0.0 | 0.0 | 0.00 | 0.00 | 0.00 | 97 | 1013.7 |
| 20260901103205 | 62 | 220 | 0.0 | 0.0 | 0.00 | 0.00 | 0.00 | 97 | 1013.7 |
| 20260901102954 | 62 | 220 | 0.0 | 0.0 | 0.00 | 0.00 | 0.00 | 97 | 1013.7 |
| 20260901102940 | 62 | 217 | 0.0 | 0.0 | 0.00 | 0.00 | 0.00 | 97 | 1013.7 |
| 20260901102631 | 62 | 220 | 0.0 | 0.0 | 0.00 | 0.00 | 0.00 | 97 | 1013.7 |
| 20260901102431 | 62 | 217 | 0.0 | 0.0 | 0.00 | 0.00 | 0.00 | 96 | 1013.7 |
| 20260901102231 | 62 | 220 | 0.0 | 0.0 | 0.00 | 0.00 | 0.00 | 96 | 1013.8 |
| 20260901102204 | 62 | 221 | 0.0 | 0.0 | 0.00 | 0.00 | 0.00 | 96 | 1013.8 |
| 20260901102037 | 62 | 219 | 0.0 | 0.0 | 0.00 | 0.00 | 0.00 | 96 | 1013.7 |
| 20260901102032 | 62 | 219 | 0.0 | 0.0 | 0.00 | 0.00 | 0.00 | 96 | 1013.8 |
| 20260901101958 | 62 | 219 | 0.0 | 0.0 | 0.00 | 0.00 | 0.00 | 96 | 1013.6 |
| 20260901101953 | 62 | 220 | 0.0 | 0.0 | 0.00 | 0.00 | 0.00 | 96 | 1013.6 |
| 20260901101431 | 62 | 220 | 0.0 | 0.0 | 0.00 | 0.00 | 0.00 | 96 | 1013.7 |
| 20260901101232 | 62 | 220 | 0.0 | 0.0 | 0.00 | 0.00 | 0.00 | 96 | 1013.6 |
| 20260901101205 | 62 | 220 | 0.0 | 0.0 | 0.00 | 0.00 | 0.00 | 96 | 1013.7 |
| 20260901101030 | 62 | 219 | 0.0 | 0.0 | 0.00 | 0.00 | 0.00 | 96 | 1013.5 |
| 20260901100957 | 62 | 219 | 0.0 | 0.0 | 0.00 | 0.00 | 0.00 | 96 | 1013.5 |
| 20260901100939 | 62 | 220 | 0.0 | 0.0 | 0.00 | 0.00 | 0.00 | 96 | 1013.6 |
| 20260901100632 | 62 | 220 | 0.0 | 0.0 | 0.00 | 0.00 | 0.00 | 96 | 1013.5 |
| 20260901100431 | 62 | 220 | 0.0 | 0.0 | 0.00 | 0.00 | 0.00 | 96 | 1013.6 |
| 20260901100203 | 62 | 220 | 0.0 | 0.0 | 0.00 | 0.00 | 0.00 | 96 | 1013.6 |
| 20260901100031 | 62 | 219 | 0.0 | 0.0 | 0.00 | 0.00 | 0.00 | 96 | 1013.5 |
| 20260901095830 | 63 | 220 | 0.0 | 0.0 | 0.00 | 0.00 | 0.00 | 96 | 1013.5 |
| 20260901095728 | 63 | 220 | 0.0 | 0.0 | 0.00 | 0.00 | 0.00 | 96 | 1013.6 |
| 20260901095702 | 63 | 220 | 0.0 | 0.0 | 0.00 | 0.00 | 0.00 | 96 | 1013.5 |
| 20260901095540 | 63 | 220 | 0.0 | 0.0 | 0.00 | 0.00 | 0.00 | 96 | 1013.6 |
| 20260901095234 | 63 | 220 | 0.0 | 0.0 | 0.00 | 0.00 | 0.00 | 96 | 1013.6 |
| 20260901095203 | 63 | 219 | 0.0 | 0.0 | 0.00 | 0.00 | 0.00 | 96 | 1013.6 |
| 20260901095034 | 63 | 219 | 0.0 | 0.0 | 0.00 | 0.00 | 0.00 | 96 | 1013.5 |
| 20260901094834 | 63 | 219 | 0.0 | 0.0 | 0.00 | 0.00 | 0.00 | 96 | 1013.5 |
| 20260901094704 | 63 | 220 | 0.0 | 0.0 | 0.00 | 0.00 | 0.00 | 96 | 1013.5 |
| 20260901094635 | 63 | 220 | 0.0 | 0.0 | 0.00 | 0.00 | 0.00 | 96 | 1013.5 |
| 20260901094434 | 63 | 220 | 0.0 | 0.0 | 0.00 | 0.00 | 0.00 | 96 | 1013.6 |
| 20260901094335 | 63 | 220 | 0.0 | 0.0 | 0.00 | 0.00 | 0.00 | 96 | 1013.6 |
| 20260901094204 | 63 | 220 | 0.0 | 0.0 | 0.00 | 0.00 | 0.00 | 96 | 1013.6 |
| 20260901094136 | 63 | 220 | 0.0 | 0.0 | 0.00 | 0.00 | 0.00 | 96 | 1013.6 |
| 20260901093835 | 63 | 220 | 0.0 | 0.0 | 0.00 | 0.00 | 0.00 | 96 | 1013.5 |
| 20260901093651 | 63 | 219 | 0.0 | 0.0 | 0.00 | 0.00 | 0.00 | 96 | 1013.6 |
| 20260901093633 | 63 | 220 | 0.0 | 0.0 | 0.00 | 0.00 | 0.00 | 96 | 1013.6 |
| 20260901093433 | 63 | 220 | 0.0 | 0.0 | 0.00 | 0.00 | 0.00 | 96 | 1013.6 |
| 20260901093237 | 63 | 219 | 0.0 | 0.0 | 0.00 | 0.00 | 0.00 | 96 | 1013.6 |
| 20260901093151 | 63 | 219 | 0.0 | 0.0 | 0.00 | 0.00 | 0.00 | 96 | 1013.6 |
| 20260901093034 | 63 | 220 | 0.0 | 0.0 | 0.00 | 0.00 | 0.00 | 96 | 1013.6 |
| 20260901092832 | 63 | 220 | 0.0 | 0.0 | 0.00 | 0.00 | 0.00 | 96 | 1013.6 |
| 20260901092632 | 63 | 219 | 0.0 | 0.0 | 0.00 | 0.00 | 0.00 | 96 | 1013.6 |
| 20260901092432 | 63 | 219 | 0.0 | 0.0 | 0.00 | 0.00 | 0.00 | 96 | 1013.5 |
| 20260901092231 | 62 | 221 | 0.0 | 0.0 | 0.00 | 0.00 | 0.00 | 96 | 1013.5 |
| 20260901092149 | 62 | 220 | 0.0 | 0.0 | 0.00 | 0.00 | 0.00 | 96 | 1013.5 |
| 20260901092031 | 62 | 220 | 0.0 | 0.0 | 0.00 | 0.00 | 0.00 | 96 | 1013.5 |
| 20260901091926 | 62 | 220 | 0.0 | 0.0 | 0.00 | 0.00 | 0.00 | 96 | 1013.5 |
| 20260901091632 | 62 | 219 | 0.0 | 0.0 | 0.00 | 0.00 | 0.00 | 96 | 1013.5 |
| 20260901091535 | 62 | 220 | 0.0 | 0.0 | 0.00 | 0.00 | 0.00 | 96 | 1013.5 |
| 20260901091440 | 62 | 219 | 0.0 | 0.0 | 0.00 | 0.00 | 0.00 | 96 | 1013.4 |
| 20260901091412 | 62 | 219 | 0.0 | 0.0 | 0.00 | 0.00 | 0.00 | 96 | 1013.4 |
| 20260901091032 | 62 | 220 | 0.0 | 0.0 | 0.00 | 0.00 | 0.00 | 96 | 1013.5 |
| 20260901090832 | 62 | 220 | 0.0 | 0.0 | 0.00 | 0.00 | 0.00 | 96 | 1013.4 |
| 20260901090632 | 62 | 220 | 0.0 | 0.0 | 0.00 | 0.00 | 0.00 | 96 | 1013.4 |
| 20260901090529 | 62 | 220 | 0.0 | 0.0 | 0.00 | 0.00 | 0.00 | 96 | 1013.5 |
| 20260901090231 | 62 | 219 | 0.0 | 0.0 | 0.00 | 0.00 | 0.00 | 96 | 1013.5 |
| 20260901090142 | 62 | 219 | 0.0 | 0.0 | 0.00 | 0.00 | 0.00 | 96 | 1013.5 |
| 20260901090128 | 62 | 220 | 0.0 | 0.0 | 0.00 | 0.00 | 0.00 | 96 | 1013.5 |
| 20260901085831 | 62 | 219 | 0.0 | 0.0 | 0.00 | 0.00 | 0.00 | 96 | 1013.6 |
| 20260901085643 | 63 | 220 | 0.0 | 0.0 | 0.00 | 0.00 | 0.00 | 96 | 1013.6 |
| 20260901085621 | 63 | 219 | 0.0 | 0.0 | 0.00 | 0.00 | 0.00 | 96 | 1013.7 |
| 20260901085419 | 63 | 219 | 0.0 | 0.0 | 0.00 | 0.00 | 0.00 | 96 | 1013.6 |
| 20260901085220 | 62 | 219 | 0.0 | 0.0 | 0.00 | 0.00 | 0.00 | 96 | 1013.5 |
| 20260901085141 | 62 | 219 | 0.0 | 0.0 | 0.00 | 0.00 | 0.00 | 96 | 1013.5 |
| 20260901085113 | 62 | 219 | 0.0 | 0.0 | 0.00 | 0.00 | 0.00 | 96 | 1013.6 |
| 20260901084815 | 62 | 220 | 0.0 | 0.0 | 0.00 | 0.00 | 0.00 | 96 | 1013.6 |
| 20260901084641 | 63 | 220 | 0.0 | 0.0 | 0.00 | 0.00 | 0.00 | 96 | 1013.6 |
| 20260901084617 | 63 | 219 | 0.0 | 0.0 | 0.00 | 0.00 | 0.00 | 96 | 1013.6 |
| 20260901084516 | 62 | 221 | 0.0 | 0.0 | 0.00 | 0.00 | 0.00 | 96 | 1013.6 |
| 20260901084216 | 63 | 219 | 0.0 | 0.0 | 0.00 | 0.00 | 0.00 | 96 | 1013.6 |
| 20260901084140 | 63 | 220 | 0.0 | 0.0 | 0.00 | 0.00 | 0.00 | 96 | 1013.6 |
| 20260901084014 | 63 | 217 | 0.0 | 0.0 | 0.00 | 0.00 | 0.00 | 96 | 1013.6 |
| 20260901083815 | 63 | 221 | 0.0 | 0.0 | 0.00 | 0.00 | 0.00 | 96 | 1013.5 |
| 20260901083637 | 63 | 217 | 0.0 | 0.0 | 0.00 | 0.00 | 0.00 | 96 | 1013.7 |
| 20260901083611 | 63 | 219 | 0.0 | 0.0 | 0.00 | 0.00 | 0.00 | 96 | 1013.6 |
| 20260901083508 | 63 | 219 | 0.0 | 0.0 | 0.00 | 0.00 | 0.00 | 96 | 1013.5 |
| 20260901083210 | 63 | 219 | 0.0 | 0.0 | 0.00 | 0.00 | 0.00 | 96 | 1013.6 |
| 20260901083138 | 63 | 220 | 0.0 | 0.0 | 0.00 | 0.00 | 0.00 | 96 | 1013.6 |
| 20260901083102 | 63 | 221 | 0.0 | 0.0 | 0.00 | 0.00 | 0.00 | 96 | 1013.5 |
| 20260901082934 | 63 | 220 | 0.0 | 0.0 | 0.00 | 0.00 | 0.00 | 96 | 1013.5 |
| 20260901082914 | 63 | 219 | 0.0 | 0.0 | 0.00 | 0.00 | 0.00 | 96 | 1013.5 |
| 20260901082605 | 63 | 219 | 0.0 | 0.0 | 0.00 | 0.00 | 0.00 | 96 | 1013.5 |
| 20260901082407 | 63 | 220 | 0.0 | 0.0 | 0.00 | 0.00 | 0.00 | 96 | 1013.5 |
| 20260901082205 | 63 | 220 | 0.0 | 0.0 | 0.00 | 0.00 | 0.00 | 96 | 1013.5 |
| 20260901082136 | 63 | 219 | 0.0 | 0.0 | 0.00 | 0.00 | 0.00 | 96 | 1013.5 |
| 20260901082105 | 63 | 220 | 0.0 | 0.0 | 0.00 | 0.00 | 0.00 | 96 | 1013.6 |
| 20260901081806 | 63 | 220 | 0.0 | 0.0 | 0.00 | 0.00 | 0.00 | 96 | 1013.6 |
| 20260901081708 | 63 | 219 | 0.0 | 0.0 | 0.00 | 0.00 | 0.00 | 96 | 1013.6 |
| 20260901081634 | 63 | 219 | 0.0 | 0.0 | 0.00 | 0.00 | 0.00 | 96 | 1013.6 |
| 20260901081335 | 63 | 220 | 0.0 | 0.0 | 0.00 | 0.00 | 0.00 | 96 | 1013.6 |
| 20260901081134 | 64 | 220 | 0.0 | 0.0 | 0.00 | 0.00 | 0.00 | 96 | 1013.6 |
| 20260901080935 | 64 | 219 | 0.0 | 0.0 | 0.00 | 0.00 | 0.00 | 96 | 1013.5 |
| 20260901080737 | 63 | 219 | 0.0 | 0.0 | 0.00 | 0.00 | 0.00 | 96 | 1013.4 |
| 20260901080633 | 64 | 220 | 0.0 | 0.0 | 0.00 | 0.00 | 0.00 | 96 | 1013.5 |
| 20260901080533 | 64 | 221 | 0.0 | 0.0 | 0.00 | 0.00 | 0.00 | 96 | 1013.5 |
| 20260901080333 | 64 | 220 | 0.0 | 0.0 | 0.00 | 0.00 | 0.00 | 95 | 1013.4 |
| 20260901080245 | 64 | 219 | 0.0 | 0.0 | 0.00 | 0.00 | 0.00 | 95 | 1013.4 |
| 20260901080139 | 64 | 219 | 0.0 | 0.0 | 0.00 | 0.00 | 0.00 | 95 | 1013.4 |
| 20260901080002 | 0 | 0.0 | 0.0 | 0.00 | 0.00 | 0.00 | |||
| 20260901075903 | 0 | 0.0 | 0.0 | 0.00 | 0.00 | 0.00 | |||
| 20260901075732 | 0 | 0.0 | 0.0 | 0.00 | 0.00 | 0.00 | |||
| 20260901075431 | 0 | 0.0 | 0.0 | 0.00 | 0.00 | 0.00 | |||
| 20260901075231 | 0 | 0.0 | 0.0 | 0.00 | 0.00 | 0.00 | |||
| 20260901075032 | 0 | 0.0 | 0.0 | 0.00 | 0.00 | 0.00 | |||
| 20260901074933 | 0 | 0.0 | 0.0 | 0.00 | 0.00 | 0.00 | |||
| 20260901074804 | 0 | 0.0 | 0.0 | 0.00 | 0.00 | 0.00 | 1013.4 | ||
| 20260901074707 | 0 | 0.0 | 0.0 | 0.00 | 0.00 | 0.00 | 1013.4 | ||
| 20260901074435 | 0 | 0.0 | 0.0 | 0.00 | 0.00 | 0.00 | 1013.4 | ||
| 20260901074403 | 0 | 221 | 0.0 | 0.0 | 0.00 | 0.00 | 0.00 | 1013.4 | |
| 20260901074234 | 64 | 221 | 0.0 | 0.0 | 0.00 | 0.00 | 0.00 | 95 | 1013.4 |
| 20260901073922 | 64 | 221 | 0.0 | 0.0 | 0.00 | 0.00 | 0.00 | 95 | 1013.4 |
| 20260901073722 | 64 | 221 | 0.0 | 0.0 | 0.00 | 0.00 | 0.00 | 95 | 1013.5 |
| 20260901073712 | 64 | 221 | 0.0 | 0.0 | 0.00 | 0.00 | 0.00 | 95 | 1013.5 |
| 20260901073658 | 64 | 221 | 0.0 | 0.0 | 0.00 | 0.00 | 0.00 | 95 | 1013.5 |
| 20260901073319 | 64 | 220 | 0.0 | 0.0 | 0.00 | 0.00 | 0.00 | 95 | 1013.6 |
| 20260901073212 | 64 | 219 | 0.0 | 0.0 | 0.00 | 0.00 | 0.00 | 95 | 1013.5 |
| 20260901072924 | 64 | 220 | 0.0 | 0.0 | 0.00 | 0.00 | 0.00 | 95 | 1013.5 |
| 20260901072915 | 64 | 220 | 0.0 | 0.0 | 0.00 | 0.00 | 0.00 | 95 | 1013.6 |
| 20260901072816 | 64 | 220 | 0.0 | 0.0 | 0.00 | 0.00 | 0.00 | 95 | 1013.7 |
| 20260901072721 | 64 | 219 | 0.0 | 0.0 | 0.00 | 0.00 | 0.00 | 95 | 1013.6 |
| 20260901072655 | 64 | 219 | 0.0 | 0.0 | 0.00 | 0.00 | 0.00 | 95 | 1013.6 |
| 20260901072312 | 64 | 219 | 0.0 | 0.0 | 0.00 | 0.00 | 0.00 | 95 | 1013.7 |
| 20260901072103 | 64 | 220 | 0.0 | 0.0 | 0.00 | 0.00 | 0.00 | 95 | 1013.7 |
| 20260901071923 | 64 | 220 | 0.0 | 0.0 | 0.00 | 0.00 | 0.00 | 95 | 1013.7 |
| 20260901071903 | 64 | 220 | 0.0 | 0.0 | 0.00 | 0.00 | 0.00 | 95 | 1013.8 |
| 20260901071720 | 64 | 217 | 0.0 | 0.0 | 0.00 | 0.00 | 0.00 | 95 | 1013.7 |
| 20260901071713 | 64 | 221 | 0.0 | 0.0 | 0.00 | 0.00 | 0.00 | 95 | 1013.7 |
| 20260901071645 | 64 | 221 | 0.0 | 0.0 | 0.00 | 0.00 | 0.00 | 95 | 1013.7 |
| 20260901071405 | 64 | 220 | 0.0 | 0.0 | 0.00 | 0.00 | 0.00 | 95 | 1013.8 |
| 20260901071159 | 64 | 220 | 0.0 | 0.0 | 0.00 | 0.00 | 0.00 | 95 | 1013.8 |
| 20260901070923 | 64 | 220 | 0.0 | 0.0 | 0.00 | 0.00 | 0.00 | 95 | 1013.9 |
| 20260901070904 | 64 | 220 | 0.0 | 0.0 | 0.00 | 0.00 | 0.00 | 95 | 1013.8 |
| 20260901070703 | 64 | 220 | 0.0 | 0.0 | 0.00 | 0.00 | 0.00 | 95 | 1013.9 |
| 20260901070504 | 64 | 220 | 0.0 | 0.0 | 0.00 | 0.00 | 0.00 | 95 | 1013.9 |
| 20260901070416 | 64 | 220 | 0.0 | 0.0 | 0.00 | 0.00 | 0.00 | 95 | 1013.9 |
| 20260901070303 | 64 | 219 | 0.0 | 0.0 | 0.00 | 0.00 | 0.00 | 95 | 1013.9 |
| 20260901070218 | 64 | 220 | 0.0 | 0.0 | 0.00 | 0.00 | 0.00 | 95 | 1014.0 |
| 20260901070211 | 64 | 220 | 0.0 | 0.0 | 0.00 | 0.00 | 0.00 | 95 | 1014.0 |
| 20260901070156 | 64 | 220 | 0.0 | 0.0 | 0.00 | 0.00 | 0.00 | 95 | 1013.9 |
| 20260901065801 | 64 | 220 | 0.0 | 0.0 | 0.00 | 0.00 | 0.00 | 95 | 1014.0 |
| 20260901065500 | 64 | 219 | 0.0 | 0.0 | 0.00 | 0.00 | 0.00 | 95 | 1013.9 |
| 20260901065414 | 64 | 220 | 0.0 | 0.0 | 0.00 | 0.00 | 0.00 | 95 | 1013.9 |
| 20260901065259 | 64 | 220 | 0.0 | 0.0 | 0.00 | 0.00 | 0.00 | 95 | 1013.9 |
| 20260901065207 | 64 | 220 | 0.0 | 0.0 | 0.00 | 0.00 | 0.00 | 95 | 1013.9 |
| 20260901065148 | 64 | 220 | 0.0 | 0.0 | 0.00 | 0.00 | 0.00 | 95 | 1014.0 |
| 20260901064858 | 64 | 219 | 0.0 | 0.0 | 0.00 | 0.00 | 0.00 | 95 | 1013.9 |
| 20260901064651 | 64 | 219 | 0.0 | 0.0 | 0.00 | 0.00 | 0.00 | 95 | 1013.9 |
| 20260901064450 | 64 | 219 | 0.0 | 0.0 | 0.00 | 0.00 | 0.00 | 95 | 1013.9 |
| 20260901064411 | 64 | 220 | 0.0 | 0.0 | 0.00 | 0.00 | 0.00 | 95 | 1013.9 |
| 20260901064253 | 64 | 220 | 0.0 | 0.0 | 0.00 | 0.00 | 0.00 | 95 | 1014.0 |
| 20260901064246 | 65 | 219 | 0.0 | 0.0 | 0.00 | 0.00 | 0.00 | 95 | 1014.1 |
| 20260901064204 | 65 | 219 | 0.0 | 0.0 | 0.00 | 0.00 | 0.00 | 95 | 1014.0 |
| 20260901063848 | 65 | 221 | 0.0 | 0.0 | 0.00 | 0.00 | 0.00 | 95 | 1014.0 |
| 20260901063648 | 65 | 219 | 0.0 | 0.0 | 0.00 | 0.00 | 0.00 | 95 | 1014.0 |
| 20260901063546 | 65 | 220 | 0.0 | 0.0 | 0.00 | 0.00 | 0.00 | 95 | 1014.0 |
| 20260901063409 | 65 | 219 | 0.0 | 0.0 | 0.00 | 0.00 | 0.00 | 94 | 1014.0 |
| 20260901063247 | 65 | 219 | 0.0 | 0.0 | 0.00 | 0.00 | 0.00 | 95 | 1014.1 |
| 20260901063203 | 65 | 219 | 0.0 | 0.0 | 0.00 | 0.00 | 0.00 | 95 | 1014.1 |
| 20260901063144 | 65 | 219 | 0.0 | 0.0 | 0.00 | 0.00 | 0.00 | 95 | 1014.1 |
| 20260901062846 | 65 | 220 | 0.0 | 0.0 | 0.00 | 0.00 | 0.00 | 95 | 1014.1 |
| 20260901062740 | 65 | 220 | 0.0 | 0.0 | 0.00 | 0.00 | 0.00 | 95 | 1014.1 |
| 20260901062443 | 65 | 220 | 0.0 | 0.0 | 0.00 | 0.00 | 0.00 | 95 | 1014.1 |
| 20260901062409 | 65 | 220 | 0.0 | 0.0 | 0.00 | 0.00 | 0.00 | 95 | 1014.0 |
| 20260901062248 | 65 | 220 | 0.0 | 0.0 | 0.00 | 0.00 | 0.00 | 95 | 1014.1 |
| 20260901062243 | 65 | 219 | 0.0 | 0.0 | 0.00 | 0.00 | 0.00 | 95 | 1014.1 |
| 20260901062154 | 65 | 220 | 0.0 | 0.0 | 0.00 | 0.00 | 0.00 | 95 | 1014.2 |
| 20260901061839 | 65 | 220 | 0.0 | 0.0 | 0.00 | 0.00 | 0.00 | 95 | 1014.2 |
| 20260901061639 | 65 | 220 | 0.0 | 0.0 | 0.00 | 0.00 | 0.00 | 94 | 1014.1 |
| 20260901061406 | 65 | 220 | 0.0 | 0.0 | 0.00 | 0.00 | 0.00 | 94 | 1014.1 |
| 20260901061332 | 65 | 220 | 0.0 | 0.0 | 0.00 | 0.00 | 0.00 | 94 | 1014.1 |
| 20260901061203 | 65 | 219 | 0.0 | 0.0 | 0.00 | 0.00 | 0.00 | 94 | 1014.0 |
| 20260901061143 | 65 | 219 | 0.0 | 0.0 | 0.00 | 0.00 | 0.00 | 94 | 1014.0 |
| 20260901060831 | 65 | 220 | 0.0 | 0.0 | 0.00 | 0.00 | 0.00 | 95 | 1014.0 |
| 20260901060633 | 65 | 219 | 0.0 | 0.0 | 0.00 | 0.00 | 0.00 | 95 | 1014.0 |
| 20260901060432 | 66 | 219 | 0.0 | 0.0 | 0.00 | 0.00 | 0.00 | 95 | 1014.1 |
| 20260901060403 | 65 | 220 | 0.0 | 0.0 | 0.00 | 0.00 | 0.00 | 95 | 1014.0 |
| 20260901060236 | 65 | 220 | 0.0 | 0.0 | 0.00 | 0.00 | 0.00 | 94 | 1014.0 |
| 20260901060223 | 66 | 219 | 0.0 | 0.0 | 0.00 | 0.00 | 0.00 | 95 | 1014.0 |
| 20260901060154 | 65 | 219 | 0.0 | 0.0 | 0.00 | 0.00 | 0.00 | 94 | 1013.9 |
| 20260901055823 | 65 | 220 | 0.0 | 0.0 | 0.00 | 0.00 | 0.00 | 94 | 1013.9 |
| 20260901055603 | 66 | 221 | 0.0 | 0.0 | 0.00 | 0.00 | 0.00 | 94 | 1013.9 |
| 20260901055514 | 66 | 220 | 0.0 | 0.0 | 0.00 | 0.00 | 0.00 | 94 | 1013.9 |
| 20260901055408 | 66 | 220 | 0.0 | 0.0 | 0.00 | 0.00 | 0.00 | 94 | 1013.9 |
| 20260901055206 | 66 | 219 | 0.0 | 0.0 | 0.00 | 0.00 | 0.00 | 94 | 1013.9 |
| 20260901055006 | 66 | 220 | 0.0 | 0.0 | 0.00 | 0.00 | 0.00 | 94 | 1013.9 |
| 20260901054909 | 66 | 220 | 0.0 | 0.0 | 0.00 | 0.00 | 0.00 | 94 | 1014.0 |
| 20260901054746 | 66 | 220 | 0.0 | 0.0 | 0.00 | 0.00 | 0.00 | 94 | 1013.9 |
| 20260901054642 | 66 | 219 | 0.0 | 0.0 | 0.00 | 0.00 | 0.00 | 94 | 1013.9 |
| 20260901054333 | 66 | 220 | 0.0 | 0.0 | 0.00 | 0.00 | 0.00 | 94 | 1013.9 |
| 20260901054143 | 66 | 219 | 0.0 | 0.0 | 0.00 | 0.00 | 0.00 | 94 | 1013.9 |
| 20260901054045 | 66 | 220 | 0.0 | 0.0 | 0.00 | 0.00 | 0.00 | 94 | 1013.8 |
| 20260901053831 | 66 | 220 | 0.0 | 0.0 | 0.00 | 0.00 | 0.00 | 94 | 1013.8 |
| 20260901053739 | 66 | 219 | 0.0 | 0.0 | 0.00 | 0.00 | 0.00 | 94 | 1013.8 |
| 20260901053539 | 66 | 220 | 0.0 | 0.0 | 0.00 | 0.00 | 0.00 | 94 | 1013.8 |
| 20260901053341 | 66 | 221 | 0.0 | 0.0 | 0.00 | 0.00 | 0.00 | 94 | 1013.8 |
| 20260901053330 | 66 | 219 | 0.0 | 0.0 | 0.00 | 0.00 | 0.00 | 94 | 1013.8 |
| 20260901053234 | 66 | 220 | 0.0 | 0.0 | 0.00 | 0.00 | 0.00 | 94 | 1013.8 |
| 20260901052938 | 66 | 219 | 0.0 | 0.0 | 0.00 | 0.00 | 0.00 | 94 | 1013.7 |
| 20260901052833 | 66 | 220 | 0.0 | 0.0 | 0.00 | 0.00 | 0.00 | 94 | 1013.7 |
| 20260901052737 | 66 | 219 | 0.0 | 0.0 | 0.00 | 0.00 | 0.00 | 94 | 1013.7 |
| 20260901052540 | 66 | 220 | 0.0 | 0.0 | 0.00 | 0.00 | 0.00 | 94 | 1013.6 |
| 20260901052343 | 66 | 219 | 0.0 | 0.0 | 0.00 | 0.00 | 0.00 | 94 | 1013.7 |
| 20260901052331 | 66 | 220 | 0.0 | 0.0 | 0.00 | 0.00 | 0.00 | 94 | 1013.7 |
| 20260901052239 | 67 | 220 | 0.0 | 0.0 | 0.00 | 0.00 | 0.00 | 94 | 1013.7 |
| 20260901052039 | 67 | 219 | 0.0 | 0.0 | 0.00 | 0.00 | 0.00 | 94 | 1013.7 |
| 20260901051832 | 67 | 220 | 0.0 | 0.0 | 0.00 | 0.00 | 0.00 | 94 | 1013.7 |
| 20260901051734 | 67 | 219 | 0.0 | 0.0 | 0.00 | 0.00 | 0.00 | 94 | 1013.7 |
| 20260901051536 | 67 | 221 | 0.0 | 0.0 | 0.00 | 0.00 | 0.00 | 94 | 1013.6 |
| 20260901051332 | 67 | 219 | 0.0 | 0.0 | 0.00 | 0.00 | 0.00 | 94 | 1013.6 |
| 20260901051133 | 67 | 219 | 0.0 | 0.0 | 0.00 | 0.00 | 0.00 | 94 | 1013.6 |
| 20260901050935 | 67 | 220 | 0.0 | 0.0 | 0.00 | 0.00 | 0.00 | 94 | 1013.6 |
| 20260901050852 | 67 | 219 | 0.0 | 0.0 | 0.00 | 0.00 | 0.00 | 94 | 1013.6 |
| 20260901050838 | 67 | 219 | 0.0 | 0.0 | 0.00 | 0.00 | 0.00 | 94 | 1013.6 |
| 20260901050629 | 67 | 220 | 0.0 | 0.0 | 0.00 | 0.00 | 0.00 | 94 | 1013.5 |
| 20260901050328 | 67 | 220 | 0.0 | 0.0 | 0.00 | 0.00 | 0.00 | 94 | 1013.4 |
| 20260901050132 | 67 | 220 | 0.0 | 0.0 | 0.00 | 0.00 | 0.00 | 93 | 1013.4 |
| 20260901050121 | 67 | 220 | 0.0 | 0.0 | 0.00 | 0.00 | 0.00 | 93 | 1013.4 |
| 20260901050059 | 67 | 220 | 0.0 | 0.0 | 0.00 | 0.00 | 0.00 | 93 | 1013.4 |
| 20260901045729 | 67 | 220 | 0.0 | 0.0 | 0.00 | 0.00 | 0.00 | 93 | 1013.4 |
| 20260901045620 | 67 | 220 | 0.0 | 0.0 | 0.00 | 0.00 | 0.00 | 93 | 1013.2 |
| 20260901045606 | 67 | 219 | 0.0 | 0.0 | 0.00 | 0.00 | 0.00 | 93 | 1013.4 |
| 20260901045231 | 67 | 220 | 0.0 | 0.0 | 0.00 | 0.00 | 0.00 | 93 | 1013.2 |
| 20260901044931 | 67 | 220 | 0.0 | 0.0 | 0.00 | 0.00 | 0.00 | 93 | 1013.2 |
| 20260901044826 | 67 | 219 | 0.0 | 0.0 | 0.00 | 0.00 | 0.00 | 93 | 1013.2 |
| 20260901044730 | 67 | 219 | 0.0 | 0.0 | 0.00 | 0.00 | 0.00 | 93 | 1013.3 |
| 20260901044613 | 68 | 220 | 0.0 | 0.0 | 0.00 | 0.00 | 0.00 | 93 | 1013.1 |
| 20260901044603 | 68 | 219 | 0.0 | 0.0 | 0.00 | 0.00 | 0.00 | 93 | 1013.1 |
| 20260901044538 | 68 | 219 | 0.0 | 0.0 | 0.00 | 0.00 | 0.00 | 93 | 1013.0 |
| 20260901044130 | 68 | 220 | 0.0 | 0.0 | 0.00 | 0.00 | 0.00 | 93 | 1013.1 |
| 20260901043931 | 68 | 219 | 0.0 | 0.0 | 0.00 | 0.00 | 0.00 | 93 | 1013.0 |
| 20260901043808 | 68 | 219 | 0.0 | 0.0 | 0.00 | 0.00 | 0.00 | 93 | 1013.1 |
| 20260901043731 | 68 | 220 | 0.0 | 0.0 | 0.00 | 0.00 | 0.00 | 93 | 1013.1 |
| 20260901043653 | 68 | 219 | 0.0 | 0.0 | 0.00 | 0.00 | 0.00 | 93 | 1013.0 |
| 20260901043600 | 68 | 219 | 0.0 | 0.0 | 0.00 | 0.00 | 0.00 | 93 | 1013.1 |
| 20260901043531 | 68 | 219 | 0.0 | 0.0 | 0.00 | 0.00 | 0.00 | 93 | 1013.0 |
| 20260901043225 | 68 | 219 | 0.0 | 0.0 | 0.00 | 0.00 | 0.00 | 93 | 1013.0 |
| 20260901042923 | 68 | 220 | 0.0 | 0.0 | 0.00 | 0.00 | 0.00 | 93 | 1013.0 |
| 20260901042806 | 68 | 220 | 0.0 | 0.0 | 0.00 | 0.00 | 0.00 | 93 | 1013.0 |
| 20260901042725 | 68 | 220 | 0.0 | 0.0 | 0.00 | 0.00 | 0.00 | 93 | 1013.0 |
| 20260901042525 | 68 | 220 | 0.0 | 0.0 | 0.00 | 0.00 | 0.00 | 93 | 1013.0 |
| 20260901042310 | 0 | 220 | 0.0 | 0.0 | 0.00 | 0.00 | 0.00 | 1013.0 | |
| 20260901042037 | 0 | 0.0 | 0.0 | 0.00 | 0.00 | 0.00 | |||
| 20260901041802 | 0 | 0.0 | 0.0 | 0.00 | 0.00 | 0.00 | |||
| 20260901041735 | 0 | 0.0 | 0.0 | 0.00 | 0.00 | 0.00 | |||
| 20260901041644 | 0 | 0.0 | 0.0 | 0.00 | 0.00 | 0.00 | |||
| 20260901041524 | 0 | 0.0 | 0.0 | 0.00 | 0.00 | 0.00 | |||
| 20260901041107 | 0 | 0.0 | 0.0 | 0.00 | 0.00 | 0.00 | |||
| 20260901040906 | 0 | 0.0 | 0.0 | 0.00 | 0.00 | 0.00 | 1013.2 | ||
| 20260901040805 | 0 | 0.0 | 0.0 | 0.00 | 0.00 | 0.00 | 1013.2 | ||
| 20260901040707 | 0 | 0.0 | 0.0 | 0.00 | 0.00 | 0.00 | 1013.2 | ||
| 20260901040615 | 69 | 220 | 0.0 | 0.0 | 0.00 | 0.00 | 0.00 | 91 | 1013.2 |
| 20260901040449 | 69 | 220 | 0.0 | 0.0 | 0.00 | 0.00 | 0.00 | 91 | 1013.2 |
| 20260901040126 | 69 | 220 | 0.0 | 0.0 | 0.00 | 0.00 | 0.00 | 91 | 1013.2 |
| 20260901035827 | 69 | 220 | 0.0 | 0.0 | 0.00 | 0.00 | 0.00 | 91 | 1013.1 |
| 20260901035727 | 69 | 220 | 0.0 | 0.0 | 0.00 | 0.00 | 0.00 | 91 | 1013.1 |
| 20260901035627 | 69 | 220 | 0.0 | 0.0 | 0.00 | 0.00 | 0.00 | 91 | 1013.1 |
| 20260901035516 | 69 | 219 | 0.0 | 0.0 | 0.00 | 0.00 | 0.00 | 91 | 1013.2 |
| 20260901035506 | 69 | 217 | 0.0 | 0.0 | 0.00 | 0.00 | 0.00 | 91 | 1013.1 |
| 20260901035437 | 69 | 220 | 0.0 | 0.0 | 0.00 | 0.00 | 0.00 | 91 | 1013.1 |
| 20260901035130 | 69 | 220 | 0.0 | 0.0 | 0.00 | 0.00 | 0.00 | 91 | 1013.1 |
| 20260901034826 | 69 | 219 | 0.0 | 0.0 | 0.00 | 0.00 | 0.00 | 92 | 1013.3 |
| 20260901034728 | 69 | 219 | 0.0 | 0.0 | 0.00 | 0.00 | 0.00 | 92 | 1013.3 |
| 20260901034713 | 69 | 220 | 0.0 | 0.0 | 0.00 | 0.00 | 0.00 | 92 | 1013.3 |
| 20260901034515 | 69 | 220 | 0.0 | 0.0 | 0.00 | 0.00 | 0.00 | 91 | 1013.4 |
| 20260901034503 | 69 | 219 | 0.0 | 0.0 | 0.00 | 0.00 | 0.00 | 91 | 1013.3 |
| 20260901034433 | 69 | 220 | 0.0 | 0.0 | 0.00 | 0.00 | 0.00 | 91 | 1013.3 |
| 20260901034026 | 69 | 220 | 0.0 | 0.0 | 0.00 | 0.00 | 0.00 | 91 | 1013.4 |
| 20260901033825 | 69 | 219 | 0.0 | 0.0 | 0.00 | 0.00 | 0.00 | 91 | 1013.4 |
| 20260901033727 | 70 | 220 | 0.0 | 0.0 | 0.00 | 0.00 | 0.00 | 91 | 1013.3 |
| 20260901033714 | 69 | 220 | 0.0 | 0.0 | 0.00 | 0.00 | 0.00 | 91 | 1013.3 |
| 20260901033529 | 70 | 219 | 0.0 | 0.0 | 0.00 | 0.00 | 0.00 | 91 | 1013.3 |
| 20260901033509 | 70 | 219 | 0.0 | 0.0 | 0.00 | 0.00 | 0.00 | 91 | 1013.4 |
| 20260901033458 | 70 | 220 | 0.0 | 0.0 | 0.00 | 0.00 | 0.00 | 91 | 1013.3 |
| 20260901033029 | 70 | 219 | 0.0 | 0.0 | 0.00 | 0.00 | 0.00 | 91 | 1013.4 |
| 20260901032825 | 70 | 219 | 0.0 | 0.0 | 0.00 | 0.00 | 0.00 | 91 | 1013.4 |
| 20260901032711 | 70 | 219 | 0.0 | 0.0 | 0.00 | 0.00 | 0.00 | 90 | 1013.3 |
| 20260901032624 | 70 | 219 | 0.0 | 0.0 | 0.00 | 0.00 | 0.00 | 90 | 1013.3 |
| 20260901032509 | 70 | 220 | 0.0 | 0.0 | 0.00 | 0.00 | 0.00 | 90 | 1013.2 |
| 20260901032500 | 70 | 220 | 0.0 | 0.0 | 0.00 | 0.00 | 0.00 | 90 | 1013.2 |
| 20260901032433 | 70 | 220 | 0.0 | 0.0 | 0.00 | 0.00 | 0.00 | 90 | 1013.1 |
| 20260901032026 | 70 | 220 | 0.0 | 0.0 | 0.00 | 0.00 | 0.00 | 90 | 1013.2 |
| 20260901031825 | 70 | 220 | 0.0 | 0.0 | 0.00 | 0.00 | 0.00 | 90 | 1013.2 |
| 20260901031709 | 70 | 220 | 0.0 | 0.0 | 0.00 | 0.00 | 0.00 | 90 | 1013.1 |
| 20260901031628 | 70 | 219 | 0.0 | 0.0 | 0.00 | 0.00 | 0.00 | 90 | 1013.1 |
| 20260901031557 | 70 | 220 | 0.0 | 0.0 | 0.00 | 0.00 | 0.00 | 90 | 1013.1 |
| 20260901031507 | 70 | 219 | 0.0 | 0.0 | 0.00 | 0.00 | 0.00 | 90 | 1013.1 |
| 20260901031431 | 70 | 220 | 0.0 | 0.0 | 0.00 | 0.00 | 0.00 | 90 | 1013.1 |
| 20260901031130 | 70 | 220 | 0.0 | 0.0 | 0.00 | 0.00 | 0.00 | 90 | 1013.1 |
| 20260901030825 | 70 | 219 | 0.0 | 0.0 | 0.00 | 0.00 | 0.00 | 90 | 1013.1 |
| 20260901030710 | 70 | 220 | 0.0 | 0.0 | 0.00 | 0.00 | 0.00 | 90 | 1013.1 |
| 20260901030624 | 71 | 220 | 0.0 | 0.0 | 0.00 | 0.00 | 0.00 | 90 | 1013.1 |
| 20260901030508 | 71 | 219 | 0.0 | 0.0 | 0.00 | 0.00 | 0.00 | 90 | 1013.1 |
| 20260901030457 | 71 | 220 | 0.0 | 0.0 | 0.00 | 0.00 | 0.00 | 90 | 1013.1 |
| 20260901030427 | 71 | 220 | 0.0 | 0.0 | 0.00 | 0.00 | 0.00 | 90 | 1013.1 |
| 20260901030134 | 71 | 220 | 0.0 | 0.0 | 0.00 | 0.00 | 0.00 | 90 | 1013.0 |
| 20260901025825 | 71 | 220 | 0.0 | 0.0 | 0.00 | 0.00 | 0.00 | 89 | 1013.0 |
| 20260901025723 | 71 | 220 | 0.0 | 0.0 | 0.00 | 0.00 | 0.00 | 89 | 1013.0 |
| 20260901025705 | 71 | 219 | 0.0 | 0.0 | 0.00 | 0.00 | 0.00 | 89 | 1013.0 |
| 20260901025425 | 71 | 220 | 0.0 | 0.0 | 0.00 | 0.00 | 0.00 | 89 | 1013.0 |
| 20260901025226 | 71 | 220 | 0.0 | 0.0 | 0.00 | 0.00 | 0.00 | 89 | 1013.0 |
| 20260901025203 | 71 | 220 | 0.0 | 0.0 | 0.00 | 0.00 | 0.00 | 89 | 1013.1 |
| 20260901025030 | 71 | 220 | 0.0 | 0.0 | 0.00 | 0.00 | 0.00 | 89 | 1013.1 |
| 20260901024825 | 71 | 220 | 0.0 | 0.0 | 0.00 | 0.00 | 0.00 | 89 | 1013.0 |
| 20260901024723 | 71 | 221 | 0.0 | 0.0 | 0.00 | 0.00 | 0.00 | 89 | 1013.0 |
| 20260901024703 | 71 | 220 | 0.0 | 0.0 | 0.00 | 0.00 | 0.00 | 89 | 1013.0 |
| 20260901024427 | 71 | 219 | 0.0 | 0.0 | 0.00 | 0.00 | 0.00 | 89 | 1012.9 |
| 20260901024225 | 71 | 220 | 0.0 | 0.0 | 0.00 | 0.00 | 0.00 | 89 | 1012.9 |
| 20260901024203 | 71 | 220 | 0.0 | 0.0 | 0.00 | 0.00 | 0.00 | 89 | 1012.8 |
| 20260901024126 | 71 | 220 | 0.0 | 0.0 | 0.00 | 0.00 | 0.00 | 89 | 1013.0 |
| 20260901023826 | 71 | 219 | 0.0 | 0.0 | 0.00 | 0.00 | 0.00 | 88 | 1013.0 |
| 20260901023659 | 71 | 219 | 0.0 | 0.0 | 0.00 | 0.00 | 0.00 | 88 | 1013.0 |
| 20260901023625 | 71 | 219 | 0.0 | 0.0 | 0.00 | 0.00 | 0.00 | 88 | 1013.0 |
| 20260901023425 | 71 | 217 | 0.0 | 0.0 | 0.00 | 0.00 | 0.00 | 88 | 1013.0 |
| 20260901023225 | 71 | 220 | 0.0 | 0.0 | 0.00 | 0.00 | 0.00 | 88 | 1012.9 |
| 20260901023157 | 72 | 219 | 0.0 | 0.0 | 0.00 | 0.00 | 0.00 | 88 | 1013.0 |
| 20260901023127 | 72 | 220 | 0.0 | 0.0 | 0.00 | 0.00 | 0.00 | 88 | 1013.0 |
| 20260901022826 | 72 | 220 | 0.0 | 0.0 | 0.00 | 0.00 | 0.00 | 88 | 1013.0 |
| 20260901022726 | 72 | 221 | 0.0 | 0.0 | 0.00 | 0.00 | 0.00 | 88 | 1012.9 |
| 20260901022642 | 72 | 220 | 0.0 | 0.0 | 0.00 | 0.00 | 0.00 | 88 | 1012.9 |
| 20260901022425 | 72 | 220 | 0.0 | 0.0 | 0.00 | 0.00 | 0.00 | 87 | 1012.9 |
| 20260901022225 | 72 | 220 | 0.0 | 0.0 | 0.00 | 0.00 | 0.00 | 87 | 1012.8 |
| 20260901022139 | 72 | 220 | 0.0 | 0.0 | 0.00 | 0.00 | 0.00 | 87 | 1012.8 |
| 20260901022025 | 72 | 220 | 0.0 | 0.0 | 0.00 | 0.00 | 0.00 | 87 | 1012.8 |
| 20260901021824 | 72 | 220 | 0.0 | 0.0 | 0.00 | 0.00 | 0.00 | 87 | 1012.8 |
| 20260901021723 | 72 | 220 | 0.0 | 0.0 | 0.00 | 0.00 | 0.00 | 87 | 1012.9 |
| 20260901021639 | 72 | 219 | 0.0 | 0.0 | 0.00 | 0.00 | 0.00 | 87 | 1012.9 |
| 20260901021504 | 73 | 219 | 0.0 | 0.0 | 0.00 | 0.00 | 0.00 | 87 | 1012.8 |
| 20260901021434 | 73 | 220 | 0.0 | 0.0 | 0.00 | 0.00 | 0.00 | 87 | 1012.8 |
| 20260901021428 | 73 | 220 | 0.0 | 0.0 | 0.00 | 0.00 | 0.00 | 87 | 1012.7 |
| 20260901021025 | 72 | 219 | 0.0 | 0.0 | 0.00 | 0.00 | 0.00 | 86 | 1012.8 |
| 20260901020826 | 73 | 220 | 0.0 | 0.0 | 0.00 | 0.00 | 0.00 | 86 | 1012.9 |
| 20260901020634 | 73 | 220 | 0.0 | 0.0 | 0.00 | 0.00 | 0.00 | 86 | 1012.9 |
| 20260901020625 | 73 | 219 | 0.0 | 0.0 | 0.00 | 0.00 | 0.00 | 86 | 1012.9 |
| 20260901020438 | 73 | 220 | 0.0 | 0.0 | 0.00 | 0.00 | 0.00 | 85 | 1012.8 |
| 20260901020431 | 73 | 220 | 0.0 | 0.0 | 0.00 | 0.00 | 0.00 | 86 | 1012.9 |
| 20260901020401 | 73 | 219 | 0.0 | 0.0 | 0.00 | 0.00 | 0.00 | 85 | 1012.8 |
| 20260901020026 | 73 | 219 | 0.0 | 0.0 | 0.00 | 0.00 | 0.00 | 85 | 1012.7 |
| 20260901015826 | 73 | 219 | 0.0 | 0.0 | 0.00 | 0.00 | 0.00 | 85 | 1012.7 |
| 20260901015726 | 73 | 219 | 0.0 | 0.0 | 0.00 | 0.00 | 0.00 | 85 | 1012.7 |
| 20260901015647 | 73 | 219 | 0.0 | 0.0 | 0.00 | 0.00 | 0.00 | 85 | 1012.7 |
| 20260901015428 | 74 | 220 | 0.0 | 0.0 | 0.00 | 0.00 | 0.00 | 85 | 1012.6 |
| 20260901015419 | 73 | 219 | 0.0 | 0.0 | 0.00 | 0.00 | 0.00 | 85 | 1012.7 |
| 20260901015351 | 74 | 219 | 0.0 | 0.0 | 0.00 | 0.00 | 0.00 | 85 | 1012.6 |
| 20260901015026 | 74 | 219 | 0.0 | 0.0 | 0.00 | 0.00 | 0.00 | 85 | 1012.6 |
| 20260901014923 | 74 | 220 | 0.0 | 0.0 | 0.00 | 0.00 | 0.00 | 84 | 1012.6 |
| 20260901014644 | 74 | 219 | 0.0 | 0.0 | 0.00 | 0.00 | 0.00 | 84 | 1012.6 |
| 20260901014612 | 74 | 221 | 0.0 | 0.0 | 0.00 | 0.00 | 0.00 | 84 | 1012.6 |
| 20260901014407 | 74 | 219 | 0.0 | 0.0 | 0.00 | 0.00 | 0.00 | 83 | 1012.6 |
| 20260901014305 | 74 | 220 | 0.0 | 0.0 | 0.00 | 0.00 | 0.00 | 83 | 1012.6 |
| 20260901014134 | 75 | 220 | 0.0 | 0.0 | 0.00 | 0.00 | 0.00 | 83 | 1012.6 |
| 20260901014004 | 75 | 220 | 0.0 | 0.0 | 0.00 | 0.00 | 0.00 | 83 | 1012.6 |
| 20260901013748 | 75 | 219 | 0.0 | 0.0 | 0.00 | 0.00 | 0.00 | 83 | 1012.7 |
| 20260901013638 | 75 | 219 | 0.0 | 0.0 | 0.00 | 0.00 | 0.00 | 83 | 1012.6 |
| 20260901013549 | 75 | 219 | 0.0 | 0.0 | 0.00 | 0.00 | 0.00 | 83 | 1012.6 |
| 20260901013445 | 75 | 219 | 0.0 | 0.0 | 0.00 | 0.00 | 0.00 | 82 | 1012.5 |
| 20260901013140 | 75 | 220 | 0.0 | 0.0 | 0.00 | 0.00 | 0.00 | 82 | 1012.5 |
| 20260901013124 | 75 | 221 | 0.0 | 0.0 | 0.00 | 0.00 | 0.00 | 82 | 1012.5 |
| 20260901012937 | 76 | 220 | 0.0 | 0.0 | 0.00 | 0.00 | 0.00 | 82 | 1012.5 |
| 20260901012832 | 76 | 220 | 0.0 | 0.0 | 0.00 | 0.00 | 0.00 | 82 | 1012.4 |
| 20260901012627 | 76 | 219 | 0.0 | 0.0 | 0.00 | 0.00 | 0.00 | 82 | 1012.4 |
| 20260901012535 | 76 | 219 | 0.0 | 0.0 | 0.00 | 0.00 | 0.00 | 82 | 1012.4 |
| 20260901012332 | 76 | 220 | 0.0 | 0.0 | 0.00 | 0.00 | 0.00 | 82 | 1012.4 |
| 20260901012124 | 76 | 220 | 0.0 | 0.0 | 0.00 | 0.00 | 0.00 | 81 | 1012.4 |
| 20260901011929 | 76 | 220 | 0.0 | 0.0 | 0.00 | 0.00 | 0.00 | 81 | 1012.3 |
| 20260901011830 | 76 | 219 | 0.0 | 0.0 | 0.00 | 0.00 | 0.00 | 80 | 1012.3 |
| 20260901011623 | 77 | 219 | 0.0 | 0.0 | 0.00 | 0.00 | 0.00 | 80 | 1012.3 |
| 20260901011527 | 77 | 219 | 0.0 | 0.0 | 0.00 | 0.00 | 0.00 | 80 | 1012.2 |
| 20260901011325 | 77 | 220 | 0.0 | 0.0 | 0.00 | 0.00 | 0.00 | 80 | 1012.3 |
| 20260901011138 | 77 | 220 | 0.0 | 0.0 | 0.00 | 0.00 | 0.00 | 80 | 1012.2 |
| 20260901010925 | 77 | 220 | 0.0 | 0.0 | 0.00 | 0.00 | 0.00 | 80 | 1012.3 |
| 20260901010823 | 78 | 220 | 0.0 | 0.0 | 0.00 | 0.00 | 0.00 | 80 | 1012.3 |
| 20260901010624 | 78 | 219 | 0.0 | 0.0 | 0.00 | 0.00 | 0.00 | 79 | 1012.3 |
| 20260901010526 | 78 | 219 | 0.0 | 0.0 | 0.00 | 0.00 | 0.00 | 79 | 1012.3 |
| 20260901010426 | 78 | 219 | 0.0 | 0.0 | 0.00 | 0.00 | 0.00 | 77 | 1012.3 |
| 20260901010132 | 78 | 219 | 0.0 | 0.0 | 0.00 | 0.00 | 0.00 | 77 | 1012.3 |
| 20260901005923 | 78 | 219 | 0.0 | 0.0 | 0.00 | 0.00 | 0.00 | 77 | 1012.3 |
| 20260901005716 | 78 | 220 | 0.0 | 0.0 | 0.00 | 0.00 | 0.00 | 77 | 1012.3 |
| 20260901005610 | 79 | 217 | 0.0 | 0.0 | 0.00 | 0.00 | 0.00 | 77 | 1012.3 |
| 20260901005516 | 79 | 220 | 0.0 | 0.0 | 0.00 | 0.00 | 0.00 | 76 | 1012.3 |
| 20260901005411 | 79 | 220 | 0.0 | 0.0 | 0.00 | 0.00 | 0.00 | 77 | 1012.3 |
| 20260901005110 | 79 | 220 | 0.0 | 0.0 | 0.00 | 0.00 | 0.00 | 76 | 1012.3 |
| 20260901005014 | 79 | 220 | 0.0 | 0.0 | 0.00 | 0.00 | 0.00 | 76 | 1012.2 |
| 20260901004909 | 80 | 219 | 0.0 | 0.0 | 0.00 | 0.00 | 0.00 | 75 | 1012.2 |
| 20260901004844 | 79 | 220 | 0.0 | 0.0 | 0.00 | 0.00 | 0.00 | 75 | 1012.3 |
| 20260901004511 | 80 | 220 | 0.0 | 0.0 | 0.00 | 0.00 | 0.00 | 75 | 1012.3 |
| 20260901004312 | 80 | 221 | 0.0 | 0.0 | 0.00 | 0.00 | 0.00 | 75 | 1012.2 |
| 20260901004119 | 80 | 219 | 0.0 | 0.0 | 0.00 | 0.00 | 0.00 | 74 | 1012.2 |
| 20260901003942 | 0 | 0.0 | 0.0 | 0.00 | 0.00 | 0.00 | |||
| 20260901003933 | 0 | 0.0 | 0.0 | 0.00 | 0.00 | 0.00 | |||
| 20260901003607 | 0 | 0.0 | 0.0 | 0.00 | 0.00 | 0.00 | |||
| 20260901003406 | 0 | 0.0 | 0.0 | 0.00 | 0.00 | 0.00 | |||
| 20260901003203 | 0 | 0.0 | 0.0 | 0.00 | 0.00 | 0.00 | |||
| 20260901003135 | 0 | 0.0 | 0.0 | 0.00 | 0.00 | 0.00 | |||
| 20260901002951 | 0 | 0.0 | 0.0 | 0.00 | 0.00 | 0.00 | 1012.1 | ||
| 20260901002942 | 0 | 0.0 | 0.0 | 0.00 | 0.00 | 0.00 | |||
| 20260901002925 | 0 | 0.0 | 0.0 | 0.00 | 0.00 | 0.00 | 1012.1 | ||
| 20260901002307 | 0 | 0.0 | 0.0 | 0.00 | 0.00 | 0.00 | 1012.1 | ||
| 20260901002106 | 83 | 219 | 0.0 | 0.0 | 0.00 | 0.00 | 0.00 | 69 | 1012.1 |
| 20260901001834 | 83 | 219 | 0.0 | 0.0 | 0.00 | 0.00 | 0.00 | 69 | 1012.1 |
| 20260901001637 | 83 | 219 | 0.0 | 0.0 | 0.00 | 0.00 | 0.00 | 69 | 1012.1 |
| 20260901001435 | 83 | 219 | 0.0 | 0.0 | 0.00 | 0.00 | 0.00 | 69 | 1012.0 |
| 20260901001248 | 83 | 220 | 0.0 | 0.0 | 0.00 | 0.00 | 0.00 | 68 | 1012.0 |
| 20260901001234 | 83 | 219 | 0.0 | 0.0 | 0.00 | 0.00 | 0.00 | 69 | 1012.1 |
| 20260901001130 | 83 | 219 | 0.0 | 0.0 | 0.00 | 0.00 | 0.00 | 69 | 1012.0 |
| 20260901000833 | 83 | 227 | 0.0 | 0.0 | 0.00 | 0.00 | 0.00 | 68 | 1012.1 |
| 20260901000635 | 0 | 0.0 | 0.0 | 0.00 | 0.00 | 0.00 | 1012.1 | ||
| 20260901000405 | 0 | 0.0 | 0.0 | 0.00 | 0.00 | 0.00 | |||
| 20260901000314 | 0 | 0.0 | 0.0 | 0.00 | 0.00 | 0.00 | |||
| 20260901000303 | 0 | 0.0 | 0.0 | 0.00 | 0.00 | 0.00 | |||
| 20260831235935 | 0 | 0.0 | 0.0 | 0.00 | 0.00 | 0.00 | |||
| 20260831235739 | 0 | 0.0 | 0.0 | 0.00 | 0.00 | 0.00 | |||
| 20260831235735 | 0 | 0.0 | 0.0 | 0.00 | 0.00 | 0.00 | |||
| 20260831235535 | 0 | 0.0 | 0.0 | 0.00 | 0.00 | 0.00 | |||
| 20260831235335 | 0 | 0.0 | 0.0 | 0.00 | 0.00 | 0.00 | |||
| 20260831235245 | 0 | 0.0 | 0.0 | 0.00 | 0.00 | 0.00 | 1012.0 | ||
| 20260831235232 | 0 | 0.0 | 0.0 | 0.00 | 0.00 | 0.00 | 1012.0 | ||
| 20260831234907 | 0 | 0.0 | 0.0 | 0.00 | 0.00 | 0.00 | 1012.0 | ||
| 20260831234706 | 86 | 214 | 0.0 | 0.0 | 0.00 | 0.00 | 0.00 | 63 | 1012.0 |
| 20260831234508 | 86 | 214 | 0.0 | 0.0 | 0.00 | 0.00 | 0.00 | 63 | 1012.0 |
| 20260831234355 | 86 | 214 | 0.0 | 1.0 | 0.00 | 0.00 | 0.00 | 63 | 1012.0 |
| 20260831234326 | 86 | 214 | 0.0 | 3.0 | 0.00 | 0.00 | 0.00 | 63 | 1011.9 |
| 20260831234237 | 86 | 214 | 0.0 | 3.0 | 0.00 | 0.00 | 0.00 | 63 | 1011.9 |
| 20260831233856 | 86 | 214 | 0.0 | 4.0 | 0.00 | 0.00 | 0.00 | 63 | 1011.9 |
| 20260831233654 | 86 | 214 | 0.0 | 4.0 | 0.00 | 0.00 | 0.00 | 62 | 1011.9 |
| 20260831233510 | 87 | 217 | 0.0 | 4.0 | 0.00 | 0.00 | 0.00 | 62 | 1011.9 |
| 20260831233257 | 87 | 203 | 0.0 | 4.0 | 0.00 | 0.00 | 0.00 | 60 | 1011.9 |
| 20260831233056 | 87 | 203 | 0.0 | 4.0 | 0.00 | 0.00 | 0.00 | 60 | 1011.8 |
| 20260831233009 | 87 | 203 | 0.0 | 2.0 | 0.00 | 0.00 | 0.00 | 60 | 1011.9 |
| 20260831232924 | 0 | 238 | 0.0 | 0.0 | 0.00 | 0.00 | 0.00 | 1011.9 | |
| 20260831232856 | 87 | 237 | 0.0 | 2.0 | 0.00 | 0.00 | 0.00 | 60 | 1011.9 |
| 20260831232709 | 0 | 0.0 | 0.0 | 0.00 | 0.00 | 0.00 | 1011.9 | ||
| 20260831232135 | 0 | 0.0 | 0.0 | 0.00 | 0.00 | 0.00 | |||
| 20260831231934 | 0 | 0.0 | 0.0 | 0.00 | 0.00 | 0.00 | |||
| 20260831231902 | 0 | 0.0 | 0.0 | 0.00 | 0.00 | 0.00 | |||
| 20260831231734 | 0 | 0.0 | 0.0 | 0.00 | 0.00 | 0.00 | |||
| 20260831231605 | 0 | 0.0 | 0.0 | 0.00 | 0.00 | 0.00 | |||
| 20260831231600 | 0 | 0.0 | 0.0 | 0.00 | 0.00 | 0.00 | |||
| 20260831231106 | 0 | 0.0 | 0.0 | 0.00 | 0.00 | 0.00 | 1011.9 | ||
| 20260831230906 | 0 | 0.0 | 0.0 | 0.00 | 0.00 | 0.00 | 1011.9 | ||
| 20260831230830 | 0 | 0.0 | 0.0 | 0.00 | 0.00 | 0.00 | 1011.9 | ||
| 20260831230807 | 0 | 0.0 | 0.0 | 0.00 | 0.00 | 0.00 | 1011.9 | ||
| 20260831230610 | 0 | 0.0 | 0.0 | 0.00 | 0.00 | 0.00 | 1011.9 | ||
| 20260831230558 | 0 | 0.0 | 0.0 | 0.00 | 0.00 | 0.00 | 1011.9 | ||
| 20260831230234 | 0 | 0.0 | 0.0 | 0.00 | 0.00 | 0.00 | 1011.9 | ||
| 20260831230034 | 0 | 0.0 | 0.0 | 0.00 | 0.00 | 0.00 | 1011.9 | ||
| 20260831225937 | 0 | 0.0 | 0.0 | 0.00 | 0.00 | 0.00 | 1011.8 | ||
| 20260831225834 | 0 | 0.0 | 0.0 | 0.00 | 0.00 | 0.00 | 1011.8 | ||
| 20260831225432 | 0 | 0.0 | 0.0 | 0.00 | 0.00 | 0.00 | |||
| 20260831225231 | 0 | 0.0 | 0.0 | 0.00 | 0.00 | 0.00 | |||
| 20260831225130 | 0 | 0.0 | 0.0 | 0.00 | 0.00 | 0.00 | |||
| 20260831224831 | 0 | 0.0 | 0.0 | 0.00 | 0.00 | 0.00 | |||
| 20260831224731 | 0 | 0.0 | 0.0 | 0.00 | 0.00 | 0.00 | |||
| 20260831224604 | 0 | 0.0 | 0.0 | 0.00 | 0.00 | 0.00 | |||
| 20260831224446 | 0 | 0.0 | 0.0 | 0.00 | 0.00 | 0.00 | 1011.7 | ||
| 20260831224437 | 0 | 0.0 | 0.0 | 0.00 | 0.00 | 0.00 | 1011.7 | ||
| 20260831224005 | 0 | 220 | 0.0 | 0.0 | 0.00 | 0.00 | 0.00 | 1011.7 | |
| 20260831223807 | 87 | 220 | 0.0 | 1.0 | 0.00 | 0.00 | 0.00 | 60 | 1011.7 |
| 20260831223709 | 87 | 220 | 0.0 | 2.0 | 0.00 | 0.00 | 0.00 | 60 | 1011.7 |
| 20260831223639 | 87 | 220 | 0.0 | 2.0 | 0.00 | 0.00 | 0.00 | 60 | 1011.7 |
| 20260831223450 | 87 | 220 | 0.0 | 2.0 | 0.00 | 0.00 | 0.00 | 60 | 1011.7 |
| 20260831223416 | 87 | 220 | 0.0 | 2.0 | 0.00 | 0.00 | 0.00 | 60 | 1011.7 |
| 20260831223408 | 87 | 220 | 0.0 | 2.0 | 0.00 | 0.00 | 0.00 | 60 | 1011.7 |
| 20260831223031 | 87 | 221 | 0.0 | 2.0 | 0.00 | 0.00 | 0.00 | 60 | 1011.7 |
| 20260831222733 | 88 | 221 | 0.0 | 2.0 | 0.00 | 0.00 | 0.00 | 58 | 1011.7 |
| 20260831222645 | 88 | 221 | 0.0 | 2.0 | 0.00 | 0.00 | 0.00 | 57 | 1011.7 |
| 20260831222533 | 88 | 221 | 0.0 | 2.0 | 0.00 | 0.00 | 0.00 | 56 | 1011.6 |
| 20260831222431 | 89 | 221 | 0.0 | 2.0 | 0.00 | 0.00 | 0.00 | 58 | 1011.5 |
| 20260831222416 | 88 | 221 | 0.0 | 2.0 | 0.00 | 0.00 | 0.00 | 57 | 1011.5 |
| 20260831222132 | 89 | 221 | 0.0 | 2.0 | 0.00 | 0.00 | 0.00 | 58 | 1011.5 |
| 20260831221932 | 89 | 221 | 0.0 | 2.0 | 0.00 | 0.00 | 0.00 | 58 | 1011.6 |
| 20260831221837 | 88 | 221 | 0.0 | 1.0 | 0.00 | 0.00 | 0.00 | 62 | 1011.5 |
| 20260831221648 | 88 | 220 | 0.0 | 1.0 | 0.00 | 0.00 | 0.00 | 56 | 1011.5 |
| 20260831221638 | 88 | 223 | 0.0 | 1.0 | 0.00 | 0.00 | 0.00 | 59 | 1011.5 |
| 20260831221333 | 88 | 223 | 0.0 | 1.0 | 0.00 | 0.00 | 0.00 | 60 | 1011.5 |
| 20260831221135 | 0 | 0.0 | 0.0 | 0.00 | 0.00 | 0.00 | 1011.5 | ||
| 20260831220732 | 0 | 0.0 | 0.0 | 0.00 | 0.00 | 0.00 | |||
| 20260831220532 | 0 | 0.0 | 0.0 | 0.00 | 0.00 | 0.00 | |||
| 20260831220331 | 0 | 0.0 | 0.0 | 0.00 | 0.00 | 0.00 | |||
| 20260831220206 | 0 | 0.0 | 0.0 | 0.00 | 0.00 | 0.00 | |||
| 20260831220034 | 0 | 0.0 | 0.0 | 0.00 | 0.00 | 0.00 | |||
| 20260831220004 | 0 | 0.0 | 0.0 | 0.00 | 0.00 | 0.00 | |||
| 20260831215811 | 0 | 0.0 | 0.0 | 0.00 | 0.00 | 0.00 | 1011.5 | ||
| 20260831215802 | 0 | 0.0 | 0.0 | 0.00 | 0.00 | 0.00 | 1011.5 | ||
| 20260831215503 | 0 | 0.0 | 0.0 | 0.00 | 0.00 | 0.00 | 1011.5 | ||
| 20260831215231 | 90 | 221 | 0.0 | 2.0 | 0.00 | 0.00 | 0.00 | 53 | 1011.5 |
| 20260831215007 | 90 | 221 | 0.0 | 2.0 | 0.00 | 0.00 | 0.00 | 53 | 1011.5 |
| 20260831214831 | 90 | 221 | 0.0 | 2.0 | 0.00 | 0.00 | 0.00 | 53 | 1011.4 |
| 20260831214824 | 90 | 221 | 0.0 | 2.0 | 0.00 | 0.00 | 0.00 | 53 | 1011.4 |
| 20260831214731 | 90 | 221 | 0.0 | 2.0 | 0.00 | 0.00 | 0.00 | 53 | 1011.4 |
| 20260831214203 | 90 | 221 | 0.0 | 4.0 | 0.00 | 0.00 | 0.00 | 50 | 1011.2 |
| 20260831213951 | 90 | 221 | 0.0 | 4.0 | 0.00 | 0.00 | 0.00 | 53 | 1011.2 |
| 20260831213800 | 90 | 221 | 0.0 | 4.0 | 0.00 | 0.00 | 0.00 | 50 | 1011.2 |
| 20260831213746 | 90 | 223 | 0.0 | 4.0 | 0.00 | 0.00 | 0.00 | 51 | 1011.2 |
| 20260831213726 | 90 | 221 | 0.0 | 4.0 | 0.00 | 0.00 | 0.00 | 52 | 1011.2 |
| 20260831213355 | 90 | 223 | 0.0 | 4.0 | 0.00 | 0.00 | 0.00 | 51 | 1011.4 |
| 20260831213159 | 0 | 0.0 | 0.0 | 0.00 | 0.00 | 0.00 | 1011.1 | ||
| 20260831213154 | 0 | 221 | 0.0 | 0.0 | 0.00 | 0.00 | 0.00 | 1011.2 | |
| 20260831212955 | 0 | 0.0 | 0.0 | 0.00 | 0.00 | 0.00 | 1011.1 | ||
| 20260831212642 | 0 | 0.0 | 0.0 | 0.00 | 0.00 | 0.00 | |||
| 20260831212623 | 0 | 0.0 | 0.0 | 0.00 | 0.00 | 0.00 | |||
| 20260831212232 | 0 | 0.0 | 0.0 | 0.00 | 0.00 | 0.00 | |||
| 20260831212144 | 0 | 0.0 | 0.0 | 0.00 | 0.00 | 0.00 | |||
| 20260831212133 | 0 | 0.0 | 0.0 | 0.00 | 0.00 | 0.00 | |||
| 20260831211834 | 0 | 0.0 | 0.0 | 0.00 | 0.00 | 0.00 | |||
| 20260831211640 | 0 | 0.0 | 0.0 | 0.00 | 0.00 | 0.00 | 1011.0 | ||
| 20260831211635 | 0 | 0.0 | 0.0 | 0.00 | 0.00 | 0.00 | |||
| 20260831211402 | 0 | 0.0 | 0.0 | 0.00 | 0.00 | 0.00 | 1011.0 | ||
| 20260831211231 | 0 | 0.0 | 0.0 | 0.00 | 0.00 | 0.00 | 1011.0 | ||
| 20260831211207 | 0 | 0.0 | 0.0 | 0.00 | 0.00 | 0.00 | 1011.0 | ||
| 20260831211139 | 0 | 0.0 | 0.0 | 0.00 | 0.00 | 0.00 | 1011.0 | ||
| 20260831210806 | 0 | 0.0 | 0.0 | 0.00 | 0.00 | 0.00 | 1011.0 | ||
| 20260831210646 | 0 | 0.0 | 0.0 | 0.00 | 0.00 | 0.00 | 1011.0 | ||
| 20260831210335 | 0 | 0.0 | 0.0 | 0.00 | 0.00 | 0.00 | 1011.0 | ||
| 20260831210324 | 0 | 0.0 | 0.0 | 0.00 | 0.00 | 0.00 | |||
| 20260831205933 | 0 | 0.0 | 0.0 | 0.00 | 0.00 | 0.00 | |||
| 20260831205706 | 0 | 0.0 | 0.0 | 0.00 | 0.00 | 0.00 | |||
| 20260831205507 | 0 | 0.0 | 0.0 | 0.00 | 0.00 | 0.00 | |||
| 20260831205410 | 0 | 0.0 | 0.0 | 0.00 | 0.00 | 0.00 | |||
| 20260831205246 | 0 | 0.0 | 0.0 | 0.00 | 0.00 | 0.00 | |||
| 20260831204935 | 0 | 0.0 | 0.0 | 0.00 | 0.00 | 0.00 | 1011.0 | ||
| 20260831204633 | 0 | 0.0 | 0.0 | 0.00 | 0.00 | 0.00 | 1011.0 | ||
| 20260831204531 | 0 | 0.0 | 0.0 | 0.00 | 0.00 | 0.00 | 1011.0 | ||
| 20260831204432 | 89 | 220 | 0.0 | 1.0 | 0.00 | 0.00 | 0.00 | 58 | 1011.0 |
| 20260831204233 | 89 | 220 | 0.0 | 3.0 | 0.00 | 0.00 | 0.00 | 58 | 1011.0 |
| 20260831204012 | 89 | 220 | 0.0 | 4.0 | 0.00 | 0.00 | 0.00 | 58 | 1011.0 |
| 20260831203912 | 89 | 220 | 0.0 | 4.0 | 0.00 | 0.00 | 0.00 | 58 | 1011.1 |
| 20260831203610 | 89 | 220 | 0.0 | 4.0 | 0.00 | 0.00 | 0.00 | 58 | 1011.0 |
| 20260831203521 | 90 | 219 | 0.0 | 4.0 | 0.00 | 0.00 | 0.00 | 57 | 1011.0 |
| 20260831203505 | 89 | 220 | 0.0 | 4.0 | 0.00 | 0.00 | 0.00 | 58 | 1011.1 |
| 20260831203302 | 91 | 178 | 0.0 | 4.0 | 0.00 | 0.00 | 0.00 | 61 | 1011.1 |
| 20260831203248 | 90 | 220 | 0.0 | 4.0 | 0.00 | 0.00 | 0.00 | 59 | 1011.1 |
| 20260831202805 | 90 | 228 | 0.0 | 4.0 | 0.00 | 0.00 | 0.00 | 61 | 1011.1 |
| 20260831202604 | 90 | 228 | 0.0 | 4.0 | 0.00 | 0.00 | 0.00 | 61 | 1011.1 |
| 20260831202510 | 90 | 230 | 0.0 | 4.0 | 0.00 | 0.00 | 0.00 | 61 | 1011.1 |
| 20260831202406 | 90 | 230 | 0.0 | 4.0 | 0.00 | 0.00 | 0.00 | 63 | 1011.0 |
| 20260831202338 | 0 | 230 | 0.0 | 0.0 | 0.00 | 0.00 | 0.00 | 1011.1 | |
| 20260831202219 | 0 | 0.0 | 0.0 | 0.00 | 0.00 | 0.00 | 1011.1 | ||
| 20260831201735 | 0 | 0.0 | 0.0 | 0.00 | 0.00 | 0.00 | |||
| 20260831201639 | 0 | 0.0 | 0.0 | 0.00 | 0.00 | 0.00 | |||
| 20260831201402 | 0 | 0.0 | 0.0 | 0.00 | 0.00 | 0.00 | |||
| 20260831201335 | 0 | 0.0 | 0.0 | 0.00 | 0.00 | 0.00 | |||
| 20260831201144 | 0 | 0.0 | 0.0 | 0.00 | 0.00 | 0.00 | |||
| 20260831201119 | 0 | 0.0 | 0.0 | 0.00 | 0.00 | 0.00 | |||
| 20260831200809 | 0 | 0.0 | 0.0 | 0.00 | 0.00 | 0.00 | |||
| 20260831200507 | 0 | 0.0 | 0.0 | 0.00 | 0.00 | 0.00 | 1011.0 | ||
| 20260831200406 | 0 | 0.0 | 0.0 | 0.00 | 0.00 | 0.00 | 1011.0 | ||
| 20260831200307 | 0 | 0.0 | 0.0 | 0.00 | 0.00 | 0.00 | 1011.0 | ||
| 20260831200134 | 90 | 224 | 0.0 | 1.0 | 0.00 | 0.00 | 0.00 | 60 | 1011.0 |
| 20260831195837 | 90 | 224 | 0.0 | 3.0 | 0.00 | 0.00 | 0.00 | 60 | 1011.0 |
| 20260831195628 | 90 | 224 | 0.0 | 4.0 | 0.00 | 0.00 | 0.00 | 60 | 1011.1 |
| 20260831195611 | 90 | 224 | 0.0 | 4.0 | 0.00 | 0.00 | 0.00 | 60 | 1011.0 |
| 20260831195607 | 90 | 224 | 0.0 | 4.0 | 0.00 | 0.00 | 0.00 | 60 | 1011.0 |
| 20260831195552 | 90 | 224 | 0.0 | 4.0 | 0.00 | 0.00 | 0.00 | 60 | 1011.1 |
| 20260831195032 | 89 | 227 | 0.0 | 4.0 | 0.00 | 0.00 | 0.00 | 60 | 1011.0 |
| 20260831194828 | 90 | 227 | 0.0 | 6.0 | 0.00 | 0.00 | 0.00 | 60 | 1011.0 |
| 20260831194653 | 89 | 203 | 0.0 | 6.0 | 0.00 | 0.00 | 0.00 | 58 | 1011.0 |
| 20260831194627 | 90 | 203 | 0.0 | 6.0 | 0.00 | 0.00 | 0.00 | 60 | 1010.9 |
| 20260831194617 | 89 | 224 | 0.0 | 6.0 | 0.00 | 0.00 | 0.00 | 58 | 1011.0 |
| 20260831194227 | 89 | 224 | 0.0 | 6.0 | 0.00 | 0.00 | 0.00 | 58 | 1010.9 |
| 20260831194130 | 90 | 223 | 0.0 | 6.0 | 0.00 | 0.00 | 0.00 | 58 | 1010.9 |
| 20260831193828 | 90 | 207 | 0.0 | 3.0 | 0.00 | 0.00 | 0.00 | 59 | 1011.1 |
| 20260831193628 | 90 | 207 | 0.0 | 3.0 | 0.00 | 0.00 | 0.00 | 56 | 1011.0 |
| 20260831193619 | 90 | 180 | 0.0 | 3.0 | 0.00 | 0.00 | 0.00 | 62 | 1011.0 |
| 20260831193553 | 90 | 207 | 0.0 | 3.0 | 0.00 | 0.00 | 0.00 | 61 | 1010.9 |
| 20260831193227 | 90 | 188 | 0.0 | 2.0 | 0.00 | 0.00 | 0.00 | 61 | 1010.8 |
| 20260831193126 | 89 | 186 | 0.0 | 3.0 | 0.00 | 0.00 | 0.00 | 59 | 1010.9 |
| 20260831192828 | 89 | 186 | 0.0 | 3.0 | 0.00 | 0.00 | 0.00 | 59 | 1010.9 |
| 20260831192727 | 89 | 186 | 0.0 | 3.0 | 0.00 | 0.00 | 0.00 | 58 | 1010.9 |
| 20260831192617 | 89 | 188 | 0.0 | 3.0 | 0.00 | 0.00 | 0.00 | 58 | 1010.9 |
| 20260831192554 | 89 | 186 | 0.0 | 3.0 | 0.00 | 0.00 | 0.00 | 60 | 1010.9 |
| 20260831192228 | 89 | 188 | 0.0 | 3.0 | 0.00 | 0.00 | 0.00 | 58 | 1011.0 |
| 20260831192030 | 90 | 186 | 0.0 | 3.0 | 0.00 | 0.00 | 0.00 | 59 | 1010.9 |
| 20260831191830 | 90 | 186 | 0.0 | 3.0 | 0.00 | 0.00 | 0.00 | 59 | 1010.9 |
| 20260831191727 | 89 | 185 | 0.0 | 3.0 | 0.00 | 0.00 | 0.00 | 56 | 1010.9 |
| 20260831191427 | 89 | 186 | 0.0 | 4.0 | 0.00 | 0.00 | 0.00 | 57 | 1010.9 |
| 20260831191337 | 89 | 185 | 0.0 | 4.0 | 0.00 | 0.00 | 0.00 | 56 | 1011.0 |
| 20260831191327 | 89 | 185 | 0.0 | 4.0 | 0.00 | 0.00 | 0.00 | 56 | 1011.0 |
| 20260831191120 | 89 | 152 | 0.0 | 4.0 | 0.00 | 0.00 | 0.00 | 55 | 1010.9 |
| 20260831191110 | 89 | 185 | 0.0 | 4.0 | 0.00 | 0.00 | 0.00 | 55 | 1010.9 |
| 20260831191043 | 89 | 152 | 0.0 | 4.0 | 0.00 | 0.00 | 0.00 | 55 | 1010.9 |
| 20260831190732 | 89 | 152 | 0.0 | 4.0 | 0.00 | 0.00 | 0.00 | 55 | 1010.9 |
| 20260831190426 | 90 | 111 | 0.0 | 4.0 | 0.00 | 0.00 | 0.00 | 56 | 1010.9 |
| 20260831190337 | 90 | 183 | 0.0 | 2.0 | 0.00 | 0.00 | 0.00 | 59 | 1010.9 |
| 20260831190328 | 90 | 185 | 0.0 | 2.0 | 0.00 | 0.00 | 0.00 | 58 | 1010.9 |
| 20260831190134 | 90 | 147 | 0.0 | 2.0 | 0.00 | 0.00 | 0.00 | 58 | 1010.8 |
| 20260831190118 | 90 | 103 | 0.0 | 2.0 | 0.00 | 0.00 | 0.00 | 61 | 1011.0 |
| 20260831190040 | 90 | 147 | 0.0 | 2.0 | 0.00 | 0.00 | 0.00 | 58 | 1010.8 |
| 20260831185628 | 90 | 147 | 0.0 | 2.0 | 0.00 | 0.00 | 0.00 | 59 | 1010.9 |
| 20260831185429 | 90 | 145 | 0.0 | 4.0 | 0.00 | 0.00 | 0.00 | 64 | 1010.9 |
| 20260831185336 | 89 | 148 | 0.0 | 4.0 | 0.00 | 0.00 | 0.00 | 63 | 1010.9 |
| 20260831185329 | 90 | 145 | 0.0 | 4.0 | 0.00 | 0.00 | 0.00 | 64 | 1011.0 |
| 20260831185116 | 89 | 144 | 0.0 | 4.0 | 0.00 | 0.00 | 0.00 | 66 | 1010.8 |
| 20260831185105 | 89 | 147 | 0.0 | 4.0 | 0.00 | 0.00 | 0.00 | 66 | 1011.0 |
| 20260831184627 | 89 | 147 | 0.0 | 4.0 | 0.00 | 0.00 | 0.00 | 67 | 1011.0 |
| 20260831184427 | 88 | 147 | 0.0 | 4.0 | 0.00 | 0.00 | 0.00 | 68 | 1010.9 |
| 20260831184327 | 88 | 145 | 0.0 | 4.0 | 0.00 | 0.00 | 0.00 | 66 | 1010.9 |
| 20260831184226 | 88 | 145 | 0.0 | 4.0 | 0.00 | 0.00 | 0.00 | 64 | 1011.0 |
| 20260831184028 | 88 | 213 | 0.0 | 4.0 | 0.00 | 0.00 | 0.00 | 67 | 1010.9 |
| 20260831183934 | 88 | 219 | 0.0 | 4.0 | 0.00 | 0.00 | 0.00 | 70 | 1010.9 |
| 20260831183829 | 88 | 219 | 0.0 | 4.0 | 0.00 | 0.00 | 0.00 | 70 | 1010.9 |
| 20260831183654 | 88 | 210 | 0.0 | 4.0 | 0.00 | 0.00 | 0.00 | 64 | 1010.8 |
| 20260831183628 | 88 | 154 | 0.0 | 4.0 | 0.00 | 0.00 | 0.00 | 66 | 1010.9 |
| 20260831183615 | 89 | 210 | 0.0 | 4.0 | 0.00 | 0.00 | 0.00 | 67 | 1010.9 |
| 20260831183226 | 89 | 210 | 0.0 | 4.0 | 0.00 | 0.00 | 0.00 | 66 | 1010.9 |
| 20260831183029 | 89 | 0 | 0.0 | 3.0 | 0.00 | 0.00 | 0.00 | 71 | 1010.9 |
| 20260831182829 | 88 | 0 | 0.0 | 4.0 | 0.00 | 0.00 | 0.00 | 70 | 1010.9 |
| 20260831182732 | 88 | 0 | 0.0 | 4.0 | 0.00 | 0.00 | 0.00 | 66 | 1010.8 |
| 20260831182629 | 88 | 0 | 0.0 | 4.0 | 0.00 | 0.00 | 0.00 | 66 | 1010.8 |
| 20260831182618 | 88 | 0 | 0.0 | 4.0 | 0.00 | 0.00 | 0.00 | 66 | 1010.9 |
| 20260831182556 | 88 | 0 | 0.0 | 4.0 | 0.00 | 0.00 | 0.00 | 69 | 1010.9 |
| 20260831182028 | 88 | 0 | 0.0 | 4.0 | 0.00 | 0.00 | 0.00 | 66 | 1010.9 |
| 20260831181829 | 87 | 207 | 0.0 | 4.0 | 0.00 | 0.00 | 0.00 | 69 | 1010.8 |
| 20260831181634 | 87 | 207 | 0.0 | 3.0 | 0.00 | 0.00 | 0.00 | 67 | 1010.9 |
| 20260831181629 | 87 | 206 | 0.0 | 4.0 | 0.00 | 0.00 | 0.00 | 68 | 1010.8 |
| 20260831181620 | 87 | 188 | 0.0 | 3.0 | 0.00 | 0.00 | 0.00 | 68 | 1010.9 |
| 20260831181558 | 87 | 207 | 0.0 | 4.0 | 0.00 | 0.00 | 0.00 | 68 | 1010.8 |
| 20260831181031 | 87 | 186 | 0.0 | 3.0 | 0.00 | 0.00 | 0.00 | 67 | 1010.9 |
| 20260831180935 | 87 | 186 | 0.0 | 3.0 | 0.00 | 0.00 | 0.00 | 71 | 1010.8 |
| 20260831180828 | 87 | 186 | 0.0 | 3.0 | 0.00 | 0.00 | 0.00 | 71 | 1010.8 |
| 20260831180627 | 87 | 186 | 0.0 | 3.0 | 0.00 | 0.00 | 0.00 | 71 | 1010.8 |
| 20260831180428 | 86 | 238 | 0.0 | 2.0 | 0.00 | 0.00 | 0.00 | 73 | 1010.8 |
| 20260831180328 | 86 | 238 | 0.0 | 2.0 | 0.00 | 0.00 | 0.00 | 73 | 1010.9 |
| 20260831180228 | 86 | 238 | 0.0 | 2.0 | 0.00 | 0.00 | 0.00 | 73 | 1011.0 |
| 20260831180029 | 0 | 237 | 0.0 | 0.0 | 0.00 | 0.00 | 0.00 | 1011.0 | |
| 20260831175934 | 0 | 0.0 | 0.0 | 0.00 | 0.00 | 0.00 | 1011.0 | ||
| 20260831175828 | 0 | 0.0 | 0.0 | 0.00 | 0.00 | 0.00 | 1011.0 | ||
| 20260831175536 | 0 | 0.0 | 0.0 | 0.00 | 0.00 | 0.00 | |||
| 20260831175438 | 0 | 0.0 | 0.0 | 0.00 | 0.00 | 0.00 | |||
| 20260831175335 | 0 | 0.0 | 0.0 | 0.00 | 0.00 | 0.00 | |||
| 20260831175107 | 0 | 0.0 | 0.0 | 0.00 | 0.00 | 0.00 | |||
| 20260831175008 | 0 | 0.0 | 0.0 | 0.00 | 0.00 | 0.00 | |||
| 20260831174805 | 0 | 0.0 | 0.0 | 0.00 | 0.00 | 0.00 | |||
| 20260831174707 | 0 | 0.0 | 0.0 | 0.00 | 0.00 | 0.00 | |||
| 20260831174606 | 0 | 0.0 | 0.0 | 0.00 | 0.00 | 0.00 | |||
| 20260831174303 | 0 | 0.0 | 0.0 | 0.00 | 0.00 | 0.00 | 1011.2 | ||
| 20260831174235 | 0 | 0.0 | 0.0 | 0.00 | 0.00 | 0.00 | 1011.2 | ||
| 20260831174035 | 0 | 0.0 | 0.0 | 0.00 | 0.00 | 0.00 | 1011.2 | ||
| 20260831173837 | 85 | 203 | 0.0 | 2.0 | 0.00 | 0.00 | 0.00 | 79 | 1011.2 |
| 20260831173802 | 85 | 203 | 0.0 | 2.0 | 0.00 | 0.00 | 0.00 | 79 | 1011.2 |
| 20260831173635 | 85 | 203 | 0.0 | 2.0 | 0.00 | 0.00 | 0.00 | 79 | 1011.2 |
| 20260831173507 | 85 | 203 | 0.0 | 4.0 | 0.00 | 0.00 | 0.00 | 79 | 1011.1 |
| 20260831173210 | 85 | 203 | 0.0 | 4.0 | 0.00 | 0.00 | 0.00 | 79 | 1011.1 |
| 20260831173110 | 85 | 203 | 0.0 | 4.0 | 0.00 | 0.00 | 0.00 | 79 | 1011.2 |
| 20260831172810 | 85 | 203 | 0.0 | 4.0 | 0.00 | 0.00 | 0.00 | 79 | 1011.2 |
| 20260831172729 | 85 | 220 | 0.0 | 4.0 | 0.00 | 0.00 | 0.00 | 80 | 1011.4 |
| 20260831172608 | 85 | 219 | 0.0 | 4.0 | 0.00 | 0.00 | 0.00 | 79 | 1011.4 |
| 20260831172410 | 85 | 231 | 0.0 | 4.0 | 0.00 | 0.00 | 0.00 | 78 | 1011.4 |
| 20260831172211 | 85 | 162 | 0.0 | 3.0 | 0.00 | 0.00 | 0.00 | 78 | 1011.4 |
| 20260831172107 | 85 | 155 | 0.0 | 3.0 | 0.00 | 0.00 | 0.00 | 80 | 1011.2 |
| 20260831171813 | 85 | 157 | 0.0 | 3.0 | 0.00 | 0.00 | 0.00 | 80 | 1011.4 |
| 20260831171716 | 85 | 250 | 0.0 | 4.0 | 0.00 | 0.00 | 0.00 | 80 | 1011.2 |
| 20260831171712 | 85 | 252 | 0.0 | 4.0 | 0.00 | 0.00 | 0.00 | 79 | 1011.4 |
| 20260831171409 | 84 | 251 | 0.0 | 4.0 | 0.00 | 0.00 | 0.00 | 78 | 1011.2 |
| 20260831171210 | 85 | 262 | 0.0 | 4.0 | 0.00 | 0.00 | 0.00 | 80 | 1011.2 |
| 20260831171014 | 85 | 264 | 0.0 | 5.0 | 0.00 | 0.00 | 0.00 | 81 | 1011.4 |
| 20260831171010 | 85 | 262 | 0.0 | 5.0 | 0.00 | 0.00 | 0.00 | 80 | 1011.2 |
| 20260831170939 | 84 | 265 | 0.0 | 5.0 | 0.00 | 0.00 | 0.00 | 79 | 1011.4 |
| 20260831170610 | 85 | 264 | 0.0 | 5.0 | 0.00 | 0.00 | 0.00 | 80 | 1011.4 |
| 20260831170411 | 85 | 179 | 0.0 | 5.0 | 0.00 | 0.00 | 0.00 | 81 | 1011.2 |
| 20260831170213 | 85 | 179 | 0.0 | 5.0 | 0.00 | 0.00 | 0.00 | 79 | 1011.2 |
| 20260831170019 | 85 | 165 | 0.0 | 2.0 | 0.00 | 0.00 | 0.00 | 79 | 1011.4 |
| 20260831170014 | 85 | 171 | 0.0 | 4.0 | 0.00 | 0.00 | 0.00 | 80 | 1011.4 |
| 20260831170006 | 85 | 166 | 0.0 | 2.0 | 0.00 | 0.00 | 0.00 | 81 | 1011.4 |
| 20260831165937 | 85 | 165 | 0.0 | 2.0 | 0.00 | 0.00 | 0.00 | 80 | 1011.4 |
| 20260831165512 | 85 | 166 | 0.0 | 2.0 | 0.00 | 0.00 | 0.00 | 81 | 1011.2 |
| 20260831165214 | 85 | 166 | 0.0 | 2.0 | 0.00 | 0.00 | 0.00 | 81 | 1011.2 |
| 20260831165011 | 84 | 164 | 0.0 | 3.0 | 0.00 | 0.00 | 0.00 | 81 | 1011.2 |
| 20260831165004 | 84 | 165 | 0.0 | 3.0 | 0.00 | 0.00 | 0.00 | 81 | 1011.2 |
| 20260831164937 | 84 | 165 | 0.0 | 3.0 | 0.00 | 0.00 | 0.00 | 80 | 1011.1 |
| 20260831164610 | 84 | 124 | 0.0 | 3.0 | 0.00 | 0.00 | 0.00 | 80 | 1011.2 |
| 20260831164413 | 84 | 7 | 0.0 | 3.0 | 0.00 | 0.00 | 0.00 | 81 | 1011.2 |
| 20260831164317 | 84 | 148 | 0.0 | 3.0 | 0.00 | 0.00 | 0.00 | 81 | 1011.0 |
| 20260831164213 | 84 | 148 | 0.0 | 3.0 | 0.00 | 0.00 | 0.00 | 81 | 1011.0 |
| 20260831164114 | 84 | 188 | 0.0 | 3.0 | 0.00 | 0.00 | 0.00 | 81 | 1011.1 |
| 20260831163812 | 84 | 186 | 0.0 | 3.0 | 0.00 | 0.00 | 0.00 | 79 | 1010.9 |
| 20260831163713 | 84 | 186 | 0.0 | 3.0 | 0.00 | 0.00 | 0.00 | 79 | 1011.0 |
| 20260831163611 | 85 | 162 | 0.0 | 3.0 | 0.00 | 0.00 | 0.00 | 80 | 1011.0 |
| 20260831163455 | 84 | 161 | 0.0 | 3.0 | 0.00 | 0.00 | 0.00 | 80 | 1011.0 |
| 20260831163449 | 84 | 161 | 0.0 | 3.0 | 0.00 | 0.00 | 0.00 | 80 | 1011.0 |
| 20260831163423 | 84 | 161 | 0.0 | 3.0 | 0.00 | 0.00 | 0.00 | 80 | 1011.0 |
| 20260831163012 | 84 | 162 | 0.0 | 3.0 | 0.00 | 0.00 | 0.00 | 80 | 1010.9 |
| 20260831162811 | 84 | 224 | 0.0 | 6.0 | 0.00 | 0.00 | 0.00 | 80 | 1010.9 |
| 20260831162718 | 84 | 224 | 0.0 | 6.0 | 0.00 | 0.00 | 0.00 | 80 | 1011.0 |
| 20260831162714 | 84 | 224 | 0.0 | 6.0 | 0.00 | 0.00 | 0.00 | 80 | 1010.9 |
| 20260831162458 | 85 | 224 | 0.0 | 6.0 | 0.00 | 0.00 | 0.00 | 82 | 1010.9 |
| 20260831162449 | 84 | 226 | 0.0 | 6.0 | 0.00 | 0.00 | 0.00 | 80 | 1011.0 |
| 20260831162203 | 84 | 219 | 0.0 | 6.0 | 0.00 | 0.00 | 0.00 | 82 | 1010.9 |
| 20260831162000 | 84 | 217 | 0.0 | 6.0 | 0.00 | 0.00 | 0.00 | 82 | 1010.9 |
| 20260831161801 | 84 | 182 | 0.0 | 2.0 | 0.00 | 0.00 | 0.00 | 83 | 1010.8 |
| 20260831161713 | 84 | 180 | 0.0 | 3.0 | 0.00 | 0.00 | 0.00 | 83 | 1010.8 |
| 20260831161605 | 83 | 182 | 0.0 | 3.0 | 0.00 | 0.00 | 0.00 | 84 | 1010.7 |
| 20260831161601 | 84 | 182 | 0.0 | 3.0 | 0.00 | 0.00 | 0.00 | 84 | 1010.9 |
| 20260831161504 | 83 | 182 | 0.0 | 3.0 | 0.00 | 0.00 | 0.00 | 84 | 1010.6 |
| 20260831161446 | 84 | 183 | 0.0 | 3.0 | 0.00 | 0.00 | 0.00 | 85 | 1010.7 |
| 20260831161001 | 83 | 182 | 0.0 | 3.0 | 0.00 | 0.00 | 0.00 | 85 | 1010.7 |
| 20260831160800 | 83 | 182 | 0.0 | 3.0 | 0.00 | 0.00 | 0.00 | 85 | 1010.8 |
| 20260831160726 | 82 | 183 | 0.0 | 3.0 | 0.00 | 0.00 | 0.00 | 86 | 1010.8 |
| 20260831160601 | 82 | 182 | 0.0 | 3.0 | 0.00 | 0.00 | 0.00 | 85 | 1010.8 |
| 20260831160458 | 82 | 182 | 0.0 | 2.0 | 0.00 | 0.00 | 0.00 | 84 | 1010.8 |
| 20260831160444 | 82 | 183 | 0.0 | 2.0 | 0.00 | 0.00 | 0.00 | 85 | 1010.8 |
| 20260831160146 | 82 | 183 | 0.0 | 2.0 | 0.00 | 0.00 | 0.00 | 84 | 1010.7 |
| 20260831160048 | 82 | 185 | 0.0 | 2.0 | 0.00 | 0.00 | 0.00 | 85 | 1010.7 |
| 20260831155839 | 82 | 183 | 0.0 | 2.0 | 0.00 | 0.00 | 0.00 | 85 | 1010.8 |
| 20260831155714 | 82 | 182 | 0.0 | 2.0 | 0.00 | 0.00 | 0.00 | 85 | 1010.8 |
| 20260831155542 | 82 | 185 | 0.0 | 2.0 | 0.00 | 0.00 | 0.00 | 86 | 1010.8 |
| 20260831155342 | 82 | 183 | 0.0 | 2.0 | 0.00 | 0.00 | 0.00 | 86 | 1010.8 |
| 20260831155228 | 82 | 185 | 0.0 | 3.0 | 0.00 | 0.00 | 0.00 | 84 | 1010.8 |
| 20260831155143 | 82 | 182 | 0.0 | 3.0 | 0.00 | 0.00 | 0.00 | 84 | 1010.9 |
| 20260831154931 | 82 | 183 | 0.0 | 3.0 | 0.00 | 0.00 | 0.00 | 84 | 1010.7 |
| 20260831154713 | 82 | 183 | 0.0 | 3.0 | 0.00 | 0.00 | 0.00 | 84 | 1010.8 |
| 20260831154531 | 82 | 183 | 0.0 | 3.0 | 0.00 | 0.00 | 0.00 | 84 | 1010.7 |
| 20260831154414 | 83 | 185 | 0.0 | 4.0 | 0.00 | 0.00 | 0.00 | 85 | 1010.7 |
| 20260831154213 | 83 | 188 | 0.0 | 4.0 | 0.00 | 0.00 | 0.00 | 86 | 1010.7 |
| 20260831154112 | 83 | 185 | 0.0 | 4.0 | 0.00 | 0.00 | 0.00 | 86 | 1010.8 |
| 20260831154016 | 82 | 185 | 0.0 | 4.0 | 0.00 | 0.00 | 0.00 | 87 | 1010.8 |
| 20260831153715 | 82 | 185 | 0.0 | 5.0 | 0.00 | 0.00 | 0.00 | 86 | 1010.8 |
| 20260831153512 | 81 | 188 | 0.0 | 5.0 | 0.00 | 0.00 | 0.00 | 86 | 1010.9 |
| 20260831153311 | 82 | 226 | 0.0 | 5.0 | 0.00 | 0.00 | 0.00 | 86 | 1010.8 |
| 20260831153212 | 82 | 228 | 0.0 | 5.0 | 0.00 | 0.00 | 0.00 | 86 | 1010.8 |
| 20260831153112 | 82 | 228 | 0.0 | 5.0 | 0.00 | 0.00 | 0.00 | 86 | 1010.7 |
| 20260831153013 | 82 | 217 | 0.0 | 5.0 | 0.00 | 0.00 | 0.00 | 87 | 1010.6 |
| 20260831152715 | 82 | 213 | 0.0 | 4.0 | 0.00 | 0.00 | 0.00 | 88 | 1010.7 |
| 20260831152614 | 81 | 209 | 0.0 | 4.0 | 0.00 | 0.00 | 0.00 | 88 | 1010.6 |
| 20260831152311 | 81 | 230 | 0.0 | 3.0 | 0.00 | 0.00 | 0.00 | 88 | 1010.6 |
| 20260831152212 | 81 | 238 | 0.0 | 3.0 | 0.00 | 0.00 | 0.00 | 88 | 1010.6 |
| 20260831152111 | 81 | 240 | 0.0 | 3.0 | 0.00 | 0.00 | 0.00 | 88 | 1010.6 |
| 20260831151912 | 81 | 240 | 0.0 | 3.0 | 0.00 | 0.00 | 0.00 | 88 | 1010.6 |
| 20260831151714 | 81 | 171 | 0.0 | 3.0 | 0.00 | 0.00 | 0.00 | 89 | 1010.5 |
| 20260831151611 | 80 | 168 | 0.0 | 3.0 | 0.00 | 0.00 | 0.00 | 89 | 1010.5 |
| 20260831151311 | 80 | 214 | 0.0 | 5.0 | 0.00 | 0.00 | 0.00 | 89 | 1010.5 |
| 20260831151221 | 80 | 214 | 0.0 | 5.0 | 0.00 | 0.00 | 0.00 | 89 | 1010.6 |
| 20260831151212 | 80 | 214 | 0.0 | 5.0 | 0.00 | 0.00 | 0.00 | 89 | 1010.6 |
| 20260831150913 | 80 | 213 | 0.0 | 5.0 | 0.00 | 0.00 | 0.00 | 89 | 1010.6 |
| 20260831150714 | 80 | 214 | 0.0 | 5.0 | 0.00 | 0.00 | 0.00 | 89 | 1010.5 |
| 20260831150613 | 80 | 195 | 0.0 | 5.0 | 0.00 | 0.00 | 0.00 | 89 | 1010.6 |
| 20260831150312 | 79 | 206 | 0.0 | 5.0 | 0.00 | 0.00 | 0.00 | 89 | 1010.6 |
| 20260831150215 | 80 | 214 | 0.0 | 5.0 | 0.00 | 0.00 | 0.00 | 90 | 1010.6 |
| 20260831150112 | 79 | 223 | 0.0 | 5.0 | 0.00 | 0.00 | 0.00 | 90 | 1010.6 |
| 20260831145913 | 79 | 223 | 0.0 | 5.0 | 0.00 | 0.00 | 0.00 | 90 | 1010.5 |
| 20260831145713 | 79 | 283 | 0.0 | 5.0 | 0.00 | 0.00 | 0.00 | 90 | 1010.5 |
| 20260831145613 | 79 | 216 | 0.0 | 5.0 | 0.00 | 0.00 | 0.00 | 89 | 1010.6 |
| 20260831145312 | 79 | 238 | 0.0 | 7.0 | 0.00 | 0.00 | 0.00 | 89 | 1010.6 |
| 20260831145226 | 79 | 228 | 0.0 | 7.0 | 0.00 | 0.00 | 0.00 | 90 | 1010.5 |
| 20260831145212 | 79 | 217 | 0.0 | 7.0 | 0.00 | 0.00 | 0.00 | 89 | 1010.5 |
| 20260831144911 | 79 | 275 | 0.0 | 7.0 | 0.00 | 0.00 | 0.00 | 90 | 1010.4 |
| 20260831144715 | 79 | 275 | 0.0 | 7.0 | 0.00 | 0.00 | 0.00 | 90 | 1010.4 |
| 20260831144511 | 79 | 202 | 0.0 | 7.0 | 0.00 | 0.00 | 0.00 | 89 | 1010.3 |
| 20260831144312 | 79 | 204 | 0.0 | 7.0 | 0.00 | 0.00 | 0.00 | 90 | 1010.3 |
| 20260831144227 | 78 | 199 | 0.0 | 7.0 | 0.00 | 0.00 | 0.00 | 90 | 1010.2 |
| 20260831144212 | 78 | 204 | 0.0 | 7.0 | 0.00 | 0.00 | 0.00 | 90 | 1010.2 |
| 20260831143911 | 78 | 203 | 0.0 | 6.0 | 0.00 | 0.00 | 0.00 | 90 | 1010.2 |
| 20260831143820 | 78 | 204 | 0.0 | 6.0 | 0.00 | 0.00 | 0.00 | 90 | 1010.1 |
| 20260831143714 | 78 | 204 | 0.0 | 6.0 | 0.00 | 0.00 | 0.00 | 90 | 1010.1 |
| 20260831143511 | 78 | 199 | 0.0 | 6.0 | 0.00 | 0.00 | 0.00 | 90 | 1010.2 |
| 20260831143311 | 78 | 200 | 0.0 | 6.0 | 0.00 | 0.00 | 0.00 | 90 | 1010.2 |
| 20260831143212 | 78 | 234 | 0.0 | 4.0 | 0.00 | 0.00 | 0.00 | 90 | 1010.1 |
| 20260831143112 | 78 | 248 | 0.0 | 4.0 | 0.00 | 0.00 | 0.00 | 90 | 1010.1 |
| 20260831142913 | 78 | 233 | 0.0 | 4.0 | 0.00 | 0.00 | 0.00 | 91 | 1010.0 |
| 20260831142713 | 78 | 237 | 0.0 | 3.0 | 0.00 | 0.00 | 0.00 | 90 | 1009.9 |
| 20260831142512 | 78 | 235 | 0.0 | 3.0 | 0.00 | 0.00 | 0.00 | 90 | 1009.8 |
| 20260831142311 | 78 | 234 | 0.0 | 3.0 | 0.00 | 0.00 | 0.00 | 91 | 1009.9 |
| 20260831142215 | 78 | 234 | 0.0 | 3.0 | 0.00 | 0.00 | 0.00 | 91 | 1009.9 |
| 20260831142111 | 78 | 234 | 0.0 | 3.0 | 0.00 | 0.00 | 0.00 | 91 | 1009.9 |
| 20260831141912 | 78 | 237 | 0.0 | 2.0 | 0.00 | 0.00 | 0.00 | 91 | 1009.9 |
| 20260831141713 | 78 | 235 | 0.0 | 3.0 | 0.00 | 0.00 | 0.00 | 91 | 1009.8 |
| 20260831141615 | 77 | 210 | 0.0 | 4.0 | 0.00 | 0.00 | 0.00 | 91 | 1009.7 |
| 20260831141412 | 77 | 210 | 0.0 | 4.0 | 0.00 | 0.00 | 0.00 | 91 | 1009.8 |
| 20260831141212 | 77 | 210 | 0.0 | 4.0 | 0.00 | 0.00 | 0.00 | 91 | 1009.9 |
| 20260831141112 | 77 | 210 | 0.0 | 5.0 | 0.00 | 0.00 | 0.00 | 91 | 1009.9 |